Time,TemperatureF,DewpointF,PressureIn,WindDirection,WindDirectionDegrees,WindSpeedMPH,WindSpeedGustMPH,Humidity,HourlyPrecipIn,Conditions,Clouds,dailyrainin,SoftwareType,DateUTC
2013-09-10 00:00:00,80.3,71.6,29.70,WSW,240,9.0,13.0,75,0.00,,,0.00,Wunderground v.1.15,2013-09-10 05:00:00,
2013-09-10 00:03:00,80.1,71.5,29.70,WSW,237,6.0,13.0,75,0.00,,,0.00,Wunderground v.1.15,2013-09-10 05:03:00,
2013-09-10 00:04:00,80.1,71.5,29.70,WSW,248,13.0,13.0,75,0.00,,,0.00,Wunderground v.1.15,2013-09-10 05:04:00,
2013-09-10 00:05:00,80.1,71.5,29.70,WSW,243,12.0,13.0,75,0.00,,,0.00,Wunderground v.1.15,2013-09-10 05:05:00,
2013-09-10 00:08:00,80.1,71.5,29.70,West,259,9.0,11.0,75,0.00,,,0.00,Wunderground v.1.15,2013-09-10 05:08:00,
2013-09-10 00:13:00,80.1,71.5,29.69,WSW,238,12.0,15.0,75,0.00,,,0.00,Wunderground v.1.15,2013-09-10 05:13:00,
2013-09-10 00:14:00,80.1,71.5,29.69,SSW,198,15.0,15.0,75,0.00,,,0.00,Wunderground v.1.15,2013-09-10 05:14:00,
2013-09-10 00:15:00,80.1,71.5,29.69,WSW,237,11.0,15.0,75,0.00,,,0.00,Wunderground v.1.15,2013-09-10 05:15:00,
2013-09-10 00:19:00,80.1,71.5,29.69,WSW,239,13.0,13.0,75,0.00,,,0.00,Wunderground v.1.15,2013-09-10 05:19:00,
2013-09-10 00:20:00,80.1,71.5,29.69,WSW,240,10.0,13.0,75,0.00,,,0.00,Wunderground v.1.15,2013-09-10 05:20:00,
2013-09-10 00:23:00,80.1,71.5,29.69,WSW,250,11.0,13.0,75,0.00,,,0.00,Wunderground v.1.15,2013-09-10 05:23:00,
2013-09-10 00:24:00,80.1,71.5,29.69,WSW,240,6.0,13.0,75,0.00,,,0.00,Wunderground v.1.15,2013-09-10 05:24:00,
2013-09-10 00:28:00,80.1,71.5,29.69,SW,224,7.0,11.0,75,0.00,,,0.00,Wunderground v.1.15,2013-09-10 05:28:00,
2013-09-10 00:30:00,79.9,71.3,29.69,SW,221,10.0,11.0,75,0.00,,,0.00,Wunderground v.1.15,2013-09-10 05:30:00,
2013-09-10 00:34:00,79.9,71.3,29.69,SW,217,11.0,12.0,75,0.00,,,0.00,Wunderground v.1.15,2013-09-10 05:34:00,
2013-09-10 00:35:00,79.9,71.3,29.69,WSW,243,13.0,13.0,75,0.00,,,0.00,Wunderground v.1.15,2013-09-10 05:35:00,
2013-09-10 00:39:00,79.9,71.3,29.69,SW,232,15.0,15.0,75,0.00,,,0.00,Wunderground v.1.15,2013-09-10 05:39:00,
2013-09-10 00:44:00,79.8,70.8,29.70,SW,229,11.0,15.0,74,0.00,,,0.00,Wunderground v.1.15,2013-09-10 05:44:00,
2013-09-10 00:45:00,79.8,70.8,29.70,SW,234,10.0,15.0,74,0.00,,,0.00,Wunderground v.1.15,2013-09-10 05:45:00,
2013-09-10 00:48:00,79.8,71.2,29.70,WSW,240,9.0,12.0,75,0.00,,,0.00,Wunderground v.1.15,2013-09-10 05:48:00,
2013-09-10 00:49:00,79.6,71.0,29.70,WSW,250,12.0,12.0,75,0.00,,,0.00,Wunderground v.1.15,2013-09-10 05:49:00,
2013-09-10 00:50:00,79.6,71.0,29.70,WSW,245,12.0,12.0,75,0.00,,,0.00,Wunderground v.1.15,2013-09-10 05:50:00,
2013-09-10 00:55:00,79.4,70.8,29.70,WSW,242,10.0,13.0,75,0.00,,,0.00,Wunderground v.1.15,2013-09-10 05:55:00,
2013-09-10 00:58:00,79.2,70.6,29.71,WSW,237,7.0,11.0,75,0.00,,,0.00,Wunderground v.1.15,2013-09-10 05:58:00,
2013-09-10 00:59:00,79.2,70.6,29.71,SW,217,10.0,11.0,75,0.00,,,0.00,Wunderground v.1.15,2013-09-10 05:59:00,
2013-09-10 01:03:00,79.2,70.6,29.71,SSW,195,7.0,12.0,75,0.00,,,0.00,Wunderground v.1.15,2013-09-10 06:03:00,
2013-09-10 01:04:00,79.0,70.4,29.71,WSW,240,11.0,12.0,75,0.00,,,0.00,Wunderground v.1.15,2013-09-10 06:04:00,
2013-09-10 01:08:00,79.0,70.4,29.71,SW,219,6.0,9.0,75,0.00,,,0.00,Wunderground v.1.15,2013-09-10 06:08:00,
2013-09-10 01:09:00,79.0,70.4,29.71,SW,227,10.0,10.0,75,0.00,,,0.00,Wunderground v.1.15,2013-09-10 06:09:00,
2013-09-10 01:14:00,78.8,70.2,29.71,SW,223,10.0,10.0,75,0.00,,,0.00,Wunderground v.1.15,2013-09-10 06:14:00,
2013-09-10 01:18:00,78.8,70.2,29.71,SSW,211,12.0,12.0,75,0.00,,,0.00,Wunderground v.1.15,2013-09-10 06:18:00,
2013-09-10 01:19:00,78.8,70.2,29.71,SW,221,9.0,12.0,75,0.00,,,0.00,Wunderground v.1.15,2013-09-10 06:19:00,
2013-09-10 01:20:00,78.8,70.2,29.71,SW,217,5.0,12.0,75,0.00,,,0.00,Wunderground v.1.15,2013-09-10 06:20:00,
2013-09-10 01:25:00,78.8,70.2,29.71,SW,229,7.0,12.0,75,0.00,,,0.00,Wunderground v.1.15,2013-09-10 06:25:00,
2013-09-10 01:28:00,78.6,70.0,29.71,SSW,207,10.0,10.0,75,0.00,,,0.00,Wunderground v.1.15,2013-09-10 06:28:00,
2013-09-10 01:29:00,78.6,70.0,29.71,SW,217,6.0,10.0,75,0.00,,,0.00,Wunderground v.1.15,2013-09-10 06:29:00,
2013-09-10 01:33:00,78.6,70.0,29.71,SW,231,7.0,10.0,75,0.00,,,0.00,Wunderground v.1.15,2013-09-10 06:33:00,
2013-09-10 01:34:00,78.5,69.9,29.71,SW,226,11.0,11.0,75,0.00,,,0.00,Wunderground v.1.15,2013-09-10 06:34:00,
2013-09-10 01:35:00,78.5,69.9,29.71,WSW,242,7.0,11.0,75,0.00,,,0.00,Wunderground v.1.15,2013-09-10 06:35:00,
2013-09-10 01:38:00,78.5,69.9,29.71,SW,235,11.0,11.0,75,0.00,,,0.00,Wunderground v.1.15,2013-09-10 06:38:00,
2013-09-10 01:39:00,78.5,69.9,29.71,SW,236,9.0,11.0,75,0.00,,,0.00,Wunderground v.1.15,2013-09-10 06:39:00,
2013-09-10 01:43:00,78.3,69.7,29.72,WSW,240,7.0,13.0,75,0.00,,,0.00,Wunderground v.1.15,2013-09-10 06:43:00,
2013-09-10 01:44:00,78.3,69.7,29.72,WSW,237,5.0,13.0,75,0.00,,,0.00,Wunderground v.1.15,2013-09-10 06:44:00,
2013-09-10 01:45:00,78.1,69.5,29.72,SW,236,6.0,13.0,75,0.00,,,0.00,Wunderground v.1.15,2013-09-10 06:45:00,
2013-09-10 01:49:00,78.1,69.5,29.72,SW,231,13.0,13.0,75,0.00,,,0.00,Wunderground v.1.15,2013-09-10 06:49:00,
2013-09-10 01:50:00,78.1,69.5,29.72,WSW,248,11.0,13.0,75,0.00,,,0.00,Wunderground v.1.15,2013-09-10 06:50:00,
2013-09-10 01:55:00,78.1,69.5,29.72,SSW,195,10.0,13.0,75,0.00,,,0.00,Wunderground v.1.15,2013-09-10 06:55:00,
2013-09-10 01:58:00,77.9,69.3,29.72,SW,226,9.0,9.0,75,0.00,,,0.00,Wunderground v.1.15,2013-09-10 06:58:00,
2013-09-10 01:59:00,77.9,69.3,29.72,SSW,207,10.0,11.0,75,0.00,,,0.00,Wunderground v.1.15,2013-09-10 06:59:00,
2013-09-10 02:00:00,77.9,69.3,29.72,SW,236,11.0,11.0,75,0.00,,,0.00,Wunderground v.1.15,2013-09-10 07:00:00,
2013-09-10 02:03:00,77.9,69.3,29.72,SW,216,7.0,11.0,75,0.00,,,0.00,Wunderground v.1.15,2013-09-10 07:03:00,
2013-09-10 02:04:00,77.9,68.9,29.72,SW,231,13.0,13.0,74,0.00,,,0.00,Wunderground v.1.15,2013-09-10 07:04:00,
2013-09-10 02:05:00,77.9,68.9,29.72,SW,214,5.0,13.0,74,0.00,,,0.00,Wunderground v.1.15,2013-09-10 07:05:00,
2013-09-10 02:06:00,77.9,68.9,29.72,SW,231,11.0,13.0,74,0.00,,,0.00,Wunderground v.1.15,2013-09-10 07:06:00,
2013-09-10 02:09:00,77.9,68.9,29.72,SSW,211,6.0,8.0,74,0.00,,,0.00,Wunderground v.1.15,2013-09-10 07:09:00,
2013-09-10 02:11:00,77.9,68.9,29.72,SW,221,6.0,13.0,74,0.00,,,0.00,Wunderground v.1.15,2013-09-10 07:11:00,
2013-09-10 02:13:00,77.9,68.9,29.73,WSW,238,8.0,13.0,74,0.00,,,0.00,Wunderground v.1.15,2013-09-10 07:13:00,
2013-09-10 02:14:00,77.9,68.9,29.73,SW,231,7.0,13.0,74,0.00,,,0.00,Wunderground v.1.15,2013-09-10 07:14:00,
2013-09-10 02:15:00,77.9,68.9,29.73,SW,228,9.0,13.0,74,0.00,,,0.00,Wunderground v.1.15,2013-09-10 07:15:00,
2013-09-10 02:16:00,77.9,68.5,29.73,SW,231,6.0,13.0,73,0.00,,,0.00,Wunderground v.1.15,2013-09-10 07:16:00,
2013-09-10 02:19:00,77.7,68.4,29.73,WSW,245,5.0,9.0,73,0.00,,,0.00,Wunderground v.1.15,2013-09-10 07:19:00,
2013-09-10 02:20:00,77.7,68.4,29.73,SW,231,10.0,10.0,73,0.00,,,0.00,Wunderground v.1.15,2013-09-10 07:20:00,
2013-09-10 02:21:00,77.7,68.7,29.73,SW,227,7.0,11.0,74,0.00,,,0.00,Wunderground v.1.15,2013-09-10 07:21:00,
2013-09-10 02:24:00,77.6,68.3,29.73,SW,228,7.0,11.0,73,0.00,,,0.00,Wunderground v.1.15,2013-09-10 07:24:00,
2013-09-10 02:25:00,77.6,68.3,29.73,WSW,241,7.0,11.0,73,0.00,,,0.00,Wunderground v.1.15,2013-09-10 07:25:00,
2013-09-10 02:26:00,77.6,68.3,29.73,SW,229,11.0,11.0,73,0.00,,,0.00,Wunderground v.1.15,2013-09-10 07:26:00,
2013-09-10 02:29:00,77.6,68.3,29.73,WSW,241,7.0,8.0,73,0.00,,,0.00,Wunderground v.1.15,2013-09-10 07:29:00,
2013-09-10 02:30:00,77.4,68.1,29.73,WSW,238,8.0,10.0,73,0.00,,,0.00,Wunderground v.1.15,2013-09-10 07:30:00,
2013-09-10 02:31:00,77.4,68.1,29.73,West,264,7.0,10.0,73,0.00,,,0.00,Wunderground v.1.15,2013-09-10 07:31:00,
2013-09-10 02:32:00,77.4,68.1,29.73,SW,228,4.0,10.0,73,0.00,,,0.00,Wunderground v.1.15,2013-09-10 07:32:00,
2013-09-10 02:34:00,77.4,68.1,29.73,WSW,239,4.0,10.0,73,0.00,,,0.00,Wunderground v.1.15,2013-09-10 07:34:00,
2013-09-10 02:35:00,77.2,67.9,29.73,SW,235,6.0,10.0,73,0.00,,,0.00,Wunderground v.1.15,2013-09-10 07:35:00,
2013-09-10 02:36:00,77.2,67.9,29.73,SW,224,7.0,10.0,73,0.00,,,0.00,Wunderground v.1.15,2013-09-10 07:36:00,
2013-09-10 02:39:00,77.2,67.9,29.73,SW,230,7.0,7.0,73,0.00,,,0.00,Wunderground v.1.15,2013-09-10 07:39:00,
2013-09-10 02:40:00,77.0,67.7,29.73,SW,236,9.0,9.0,73,0.00,,,0.00,Wunderground v.1.15,2013-09-10 07:40:00,
2013-09-10 02:43:00,77.0,67.7,29.73,WSW,237,9.0,12.0,73,0.00,,,0.00,Wunderground v.1.15,2013-09-10 07:43:00,
2013-09-10 02:44:00,77.2,67.9,29.73,SSW,208,6.0,12.0,73,0.00,,,0.00,Wunderground v.1.15,2013-09-10 07:44:00,
2013-09-10 02:45:00,77.2,67.9,29.73,WSW,240,6.0,12.0,73,0.00,,,0.00,Wunderground v.1.15,2013-09-10 07:45:00,
2013-09-10 02:46:00,77.2,67.9,29.73,SW,231,5.0,12.0,73,0.00,,,0.00,Wunderground v.1.15,2013-09-10 07:46:00,
2013-09-10 02:49:00,77.2,67.5,29.73,WSW,239,9.0,9.0,72,0.00,,,0.00,Wunderground v.1.15,2013-09-10 07:49:00,
2013-09-10 02:50:00,77.2,67.5,29.73,SW,230,5.0,11.0,72,0.00,,,0.00,Wunderground v.1.15,2013-09-10 07:50:00,
2013-09-10 02:51:00,77.2,67.5,29.73,SW,229,7.0,11.0,72,0.00,,,0.00,Wunderground v.1.15,2013-09-10 07:51:00,
2013-09-10 02:54:00,77.0,67.3,29.73,SW,235,7.0,11.0,72,0.00,,,0.00,Wunderground v.1.15,2013-09-10 07:54:00,
2013-09-10 02:55:00,77.0,67.3,29.73,SW,228,7.0,11.0,72,0.00,,,0.00,Wunderground v.1.15,2013-09-10 07:55:00,
2013-09-10 02:56:00,77.0,67.3,29.73,SW,222,7.0,11.0,72,0.00,,,0.00,Wunderground v.1.15,2013-09-10 07:56:00,
2013-09-10 03:00:00,77.0,67.3,29.74,SW,214,7.0,9.0,72,0.00,,,0.00,Wunderground v.1.15,2013-09-10 08:00:00,
2013-09-10 03:01:00,77.0,67.3,29.74,SW,234,9.0,10.0,72,0.00,,,0.00,Wunderground v.1.15,2013-09-10 08:01:00,
2013-09-10 03:05:00,77.0,67.3,29.74,SW,228,10.0,10.0,72,0.00,,,0.00,Wunderground v.1.15,2013-09-10 08:05:00,
2013-09-10 03:08:00,77.0,67.3,29.74,SW,236,5.0,8.0,72,0.00,,,0.00,Wunderground v.1.15,2013-09-10 08:08:00,
2013-09-10 03:09:00,77.0,67.3,29.74,SW,226,7.0,9.0,72,0.00,,,0.00,Wunderground v.1.15,2013-09-10 08:09:00,
2013-09-10 03:10:00,77.0,67.3,29.74,SW,236,8.0,10.0,72,0.00,,,0.00,Wunderground v.1.15,2013-09-10 08:10:00,
2013-09-10 03:11:00,77.0,67.3,29.74,SW,225,9.0,10.0,72,0.00,,,0.00,Wunderground v.1.15,2013-09-10 08:11:00,
2013-09-10 03:13:00,77.0,67.3,29.74,WSW,237,10.0,10.0,72,0.00,,,0.00,Wunderground v.1.15,2013-09-10 08:13:00,
2013-09-10 03:14:00,77.0,67.3,29.74,SW,232,6.0,10.0,72,0.00,,,0.00,Wunderground v.1.15,2013-09-10 08:14:00,
2013-09-10 03:15:00,77.0,67.3,29.74,SW,231,9.0,10.0,72,0.00,,,0.00,Wunderground v.1.15,2013-09-10 08:15:00,
2013-09-10 03:16:00,77.0,67.3,29.74,SW,236,9.0,10.0,72,0.00,,,0.00,Wunderground v.1.15,2013-09-10 08:16:00,
2013-09-10 03:18:00,77.0,67.3,29.74,SW,214,9.0,9.0,72,0.00,,,0.00,Wunderground v.1.15,2013-09-10 08:18:00,
2013-09-10 03:19:00,77.0,66.9,29.74,SW,222,9.0,11.0,71,0.00,,,0.00,Wunderground v.1.15,2013-09-10 08:19:00,
2013-09-10 03:20:00,76.8,66.7,29.74,WSW,253,6.0,11.0,71,0.00,,,0.00,Wunderground v.1.15,2013-09-10 08:20:00,
2013-09-10 03:21:00,76.8,66.7,29.74,WSW,239,10.0,11.0,71,0.00,,,0.00,Wunderground v.1.15,2013-09-10 08:21:00,
2013-09-10 03:24:00,76.8,66.7,29.74,WSW,240,4.0,11.0,71,0.00,,,0.00,Wunderground v.1.15,2013-09-10 08:24:00,
2013-09-10 03:25:00,76.8,66.7,29.74,SW,232,7.0,11.0,71,0.00,,,0.00,Wunderground v.1.15,2013-09-10 08:25:00,
2013-09-10 03:28:00,76.8,66.7,29.74,SW,230,9.0,9.0,71,0.00,,,0.00,Wunderground v.1.15,2013-09-10 08:28:00,
2013-09-10 03:29:00,76.8,66.7,29.74,WSW,241,8.0,11.0,71,0.00,,,0.00,Wunderground v.1.15,2013-09-10 08:29:00,
2013-09-10 03:30:00,76.8,66.7,29.74,WSW,238,9.0,11.0,71,0.00,,,0.00,Wunderground v.1.15,2013-09-10 08:30:00,
2013-09-10 03:31:00,76.8,66.7,29.74,West,260,7.0,11.0,71,0.00,,,0.00,Wunderground v.1.15,2013-09-10 08:31:00,
2013-09-10 03:34:00,76.8,66.7,29.74,SW,232,8.0,11.0,71,0.00,,,0.00,Wunderground v.1.15,2013-09-10 08:34:00,
2013-09-10 03:35:00,76.8,66.3,29.74,SW,226,6.0,11.0,70,0.00,,,0.00,Wunderground v.1.15,2013-09-10 08:35:00,
2013-09-10 03:36:00,76.8,66.7,29.74,SW,224,6.0,11.0,71,0.00,,,0.00,Wunderground v.1.15,2013-09-10 08:36:00,
2013-09-10 03:37:00,76.8,66.7,29.74,SSW,210,6.0,11.0,71,0.00,,,0.00,Wunderground v.1.15,2013-09-10 08:37:00,
2013-09-10 03:39:00,76.7,66.6,29.74,SW,233,5.0,9.0,71,0.00,,,0.00,Wunderground v.1.15,2013-09-10 08:39:00,
2013-09-10 03:40:00,76.7,66.6,29.74,SW,221,8.0,10.0,71,0.00,,,0.00,Wunderground v.1.15,2013-09-10 08:40:00,
2013-09-10 03:41:00,76.7,66.6,29.74,WSW,238,5.0,10.0,71,0.00,,,0.00,Wunderground v.1.15,2013-09-10 08:41:00,
2013-09-10 03:44:00,76.7,66.2,29.74,SW,232,5.0,10.0,70,0.00,,,0.00,Wunderground v.1.15,2013-09-10 08:44:00,
2013-09-10 03:45:00,76.7,66.2,29.74,SW,229,9.0,10.0,70,0.00,,,0.00,Wunderground v.1.15,2013-09-10 08:45:00,
2013-09-10 03:46:00,76.7,66.2,29.74,SW,220,5.0,10.0,70,0.00,,,0.00,Wunderground v.1.15,2013-09-10 08:46:00,
2013-09-10 03:48:00,76.7,66.2,29.74,SW,232,6.0,6.0,70,0.00,,,0.00,Wunderground v.1.15,2013-09-10 08:48:00,
2013-09-10 03:49:00,76.7,66.2,29.74,SSW,203,4.0,7.0,70,0.00,,,0.00,Wunderground v.1.15,2013-09-10 08:49:00,
2013-09-10 03:50:00,76.7,66.2,29.74,SSW,200,5.0,8.0,70,0.00,,,0.00,Wunderground v.1.15,2013-09-10 08:50:00,
2013-09-10 03:51:00,76.7,66.2,29.74,WSW,247,5.0,10.0,70,0.00,,,0.00,Wunderground v.1.15,2013-09-10 08:51:00,
2013-09-10 03:54:00,76.7,66.2,29.74,SW,230,9.0,10.0,70,0.00,,,0.00,Wunderground v.1.15,2013-09-10 08:54:00,
2013-09-10 03:55:00,76.7,66.2,29.74,SW,225,8.0,10.0,70,0.00,,,0.00,Wunderground v.1.15,2013-09-10 08:55:00,
2013-09-10 03:56:00,76.7,66.2,29.74,WSW,240,7.0,10.0,70,0.00,,,0.00,Wunderground v.1.15,2013-09-10 08:56:00,
2013-09-10 03:58:00,76.7,66.2,29.74,SW,222,6.0,9.0,70,0.00,,,0.00,Wunderground v.1.15,2013-09-10 08:58:00,
2013-09-10 03:59:00,76.7,66.2,29.74,WSW,245,9.0,10.0,70,0.00,,,0.00,Wunderground v.1.15,2013-09-10 08:59:00,
2013-09-10 04:00:00,76.7,65.8,29.74,SSW,201,8.0,10.0,69,0.00,,,0.00,Wunderground v.1.15,2013-09-10 09:00:00,
2013-09-10 04:01:00,76.7,65.8,29.74,SW,233,7.0,10.0,69,0.00,,,0.00,Wunderground v.1.15,2013-09-10 09:01:00,
2013-09-10 04:03:00,76.7,65.8,29.74,SW,231,8.0,10.0,69,0.00,,,0.00,Wunderground v.1.15,2013-09-10 09:03:00,
2013-09-10 04:05:00,76.7,65.8,29.74,SSW,198,6.0,10.0,69,0.00,,,0.00,Wunderground v.1.15,2013-09-10 09:05:00,
2013-09-10 04:06:00,76.7,65.8,29.74,SW,228,6.0,10.0,69,0.00,,,0.00,Wunderground v.1.15,2013-09-10 09:06:00,
2013-09-10 04:09:00,76.7,65.8,29.74,SW,225,7.0,9.0,69,0.00,,,0.00,Wunderground v.1.15,2013-09-10 09:09:00,
2013-09-10 04:10:00,76.7,65.8,29.74,SW,222,6.0,10.0,69,0.00,,,0.00,Wunderground v.1.15,2013-09-10 09:10:00,
2013-09-10 04:11:00,76.7,65.8,29.74,WSW,240,7.0,10.0,69,0.00,,,0.00,Wunderground v.1.15,2013-09-10 09:11:00,
2013-09-10 04:14:00,76.5,65.6,29.74,SW,218,5.0,10.0,69,0.00,,,0.00,Wunderground v.1.15,2013-09-10 09:14:00,
2013-09-10 04:15:00,76.5,65.6,29.74,SW,214,5.0,10.0,69,0.00,,,0.00,Wunderground v.1.15,2013-09-10 09:15:00,
2013-09-10 04:18:00,76.7,65.8,29.74,SW,227,6.0,7.0,69,0.00,,,0.00,Wunderground v.1.15,2013-09-10 09:18:00,
2013-09-10 04:19:00,76.7,65.8,29.74,SW,225,5.0,7.0,69,0.00,,,0.00,Wunderground v.1.15,2013-09-10 09:19:00,
2013-09-10 04:20:00,76.7,65.8,29.74,SW,216,8.0,10.0,69,0.00,,,0.00,Wunderground v.1.15,2013-09-10 09:20:00,
2013-09-10 04:23:00,76.7,65.8,29.74,SSW,212,6.0,10.0,69,0.00,,,0.00,Wunderground v.1.15,2013-09-10 09:23:00,
2013-09-10 04:24:00,76.7,65.8,29.74,SW,226,5.0,10.0,69,0.00,,,0.00,Wunderground v.1.15,2013-09-10 09:24:00,
2013-09-10 04:25:00,76.5,65.6,29.74,SSW,213,7.0,10.0,69,0.00,,,0.00,Wunderground v.1.15,2013-09-10 09:25:00,
2013-09-10 04:28:00,76.5,65.1,29.74,SW,219,4.0,6.0,68,0.00,,,0.00,Wunderground v.1.15,2013-09-10 09:28:00,
2013-09-10 04:29:00,76.5,65.1,29.74,SW,229,5.0,9.0,68,0.00,,,0.00,Wunderground v.1.15,2013-09-10 09:29:00,
2013-09-10 04:30:00,76.5,65.6,29.74,SW,231,5.0,9.0,69,0.00,,,0.00,Wunderground v.1.15,2013-09-10 09:30:00,
2013-09-10 04:32:00,76.5,65.6,29.74,SW,236,4.0,9.0,69,0.00,,,0.00,Wunderground v.1.15,2013-09-10 09:32:00,
2013-09-10 04:34:00,76.5,65.6,29.74,SW,219,6.0,9.0,69,0.00,,,0.00,Wunderground v.1.15,2013-09-10 09:34:00,
2013-09-10 04:35:00,76.3,65.4,29.74,SW,231,7.0,13.0,69,0.00,,,0.00,Wunderground v.1.15,2013-09-10 09:35:00,
2013-09-10 04:38:00,76.3,65.4,29.74,SSW,207,6.0,11.0,69,0.00,,,0.00,Wunderground v.1.15,2013-09-10 09:38:00,
2013-09-10 04:39:00,76.3,65.4,29.74,SW,229,8.0,11.0,69,0.00,,,0.00,Wunderground v.1.15,2013-09-10 09:39:00,
2013-09-10 04:40:00,76.3,65.4,29.74,SW,226,7.0,11.0,69,0.00,,,0.00,Wunderground v.1.15,2013-09-10 09:40:00,
2013-09-10 04:44:00,76.1,65.2,29.75,SSW,205,4.0,11.0,69,0.00,,,0.00,Wunderground v.1.15,2013-09-10 09:44:00,
2013-09-10 04:45:00,76.1,65.2,29.75,South,189,5.0,11.0,69,0.00,,,0.00,Wunderground v.1.15,2013-09-10 09:45:00,
2013-09-10 04:46:00,76.1,65.2,29.75,SW,230,9.0,11.0,69,0.00,,,0.00,Wunderground v.1.15,2013-09-10 09:46:00,
2013-09-10 04:49:00,76.1,65.2,29.75,SSW,197,7.0,7.0,69,0.00,,,0.00,Wunderground v.1.15,2013-09-10 09:49:00,
2013-09-10 04:50:00,76.1,65.2,29.75,WSW,240,6.0,10.0,69,0.00,,,0.00,Wunderground v.1.15,2013-09-10 09:50:00,
2013-09-10 04:51:00,76.1,65.2,29.75,SW,231,5.0,10.0,69,0.00,,,0.00,Wunderground v.1.15,2013-09-10 09:51:00,
2013-09-10 04:53:00,76.1,65.2,29.75,SSW,210,7.0,10.0,69,0.00,,,0.00,Wunderground v.1.15,2013-09-10 09:53:00,
2013-09-10 04:54:00,76.1,65.2,29.75,SSW,212,4.0,10.0,69,0.00,,,0.00,Wunderground v.1.15,2013-09-10 09:54:00,
2013-09-10 04:56:00,76.0,65.1,29.75,SSW,209,5.0,10.0,69,0.00,,,0.00,Wunderground v.1.15,2013-09-10 09:56:00,
2013-09-10 04:59:00,76.0,65.1,29.76,WSW,238,6.0,7.0,69,0.00,,,0.00,Wunderground v.1.15,2013-09-10 09:59:00,
2013-09-10 05:00:00,75.8,64.9,29.76,SW,230,8.0,9.0,69,0.00,,,0.00,Wunderground v.1.15,2013-09-10 10:00:00,
2013-09-10 05:03:00,75.8,65.3,29.76,SW,232,7.0,10.0,70,0.00,,,0.00,Wunderground v.1.15,2013-09-10 10:03:00,
2013-09-10 05:04:00,75.8,65.3,29.76,SW,214,7.0,11.0,70,0.00,,,0.00,Wunderground v.1.15,2013-09-10 10:04:00,
2013-09-10 05:05:00,75.6,65.1,29.76,SSW,208,6.0,11.0,70,0.00,,,0.00,Wunderground v.1.15,2013-09-10 10:05:00,
2013-09-10 05:08:00,75.6,65.1,29.76,SW,223,4.0,7.0,70,0.00,,,0.00,Wunderground v.1.15,2013-09-10 10:08:00,
2013-09-10 05:09:00,75.6,65.1,29.76,SW,219,9.0,10.0,70,0.00,,,0.00,Wunderground v.1.15,2013-09-10 10:09:00,
2013-09-10 05:10:00,75.6,65.1,29.76,SSW,200,9.0,10.0,70,0.00,,,0.00,Wunderground v.1.15,2013-09-10 10:10:00,
2013-09-10 05:14:00,75.4,64.9,29.76,WSW,241,3.0,11.0,70,0.00,,,0.00,Wunderground v.1.15,2013-09-10 10:14:00,
2013-09-10 05:15:00,75.4,64.9,29.76,SW,214,8.0,11.0,70,0.00,,,0.00,Wunderground v.1.15,2013-09-10 10:15:00,
2013-09-10 05:19:00,75.4,64.9,29.76,SW,230,6.0,10.0,70,0.00,,,0.00,Wunderground v.1.15,2013-09-10 10:19:00,
2013-09-10 05:20:00,75.4,64.9,29.76,SSW,210,6.0,10.0,70,0.00,,,0.00,Wunderground v.1.15,2013-09-10 10:20:00,
2013-09-10 05:24:00,75.3,64.8,29.76,SW,233,5.0,10.0,70,0.00,,,0.00,Wunderground v.1.15,2013-09-10 10:24:00,
2013-09-10 05:25:00,75.3,64.8,29.76,SW,224,9.0,10.0,70,0.00,,,0.00,Wunderground v.1.15,2013-09-10 10:25:00,
2013-09-10 05:26:00,75.3,64.8,29.76,WSW,255,5.0,10.0,70,0.00,,,0.00,Wunderground v.1.15,2013-09-10 10:26:00,
2013-09-10 05:29:00,75.1,65.1,29.76,SW,228,9.0,10.0,71,0.00,,,0.00,Wunderground v.1.15,2013-09-10 10:29:00,
2013-09-10 05:30:00,75.1,65.1,29.76,SW,217,9.0,11.0,71,0.00,,,0.00,Wunderground v.1.15,2013-09-10 10:30:00,
2013-09-10 05:33:00,75.1,64.6,29.76,WSW,239,5.0,11.0,70,0.00,,,0.00,Wunderground v.1.15,2013-09-10 10:33:00,
2013-09-10 05:34:00,75.1,64.6,29.76,WSW,246,5.0,11.0,70,0.00,,,0.00,Wunderground v.1.15,2013-09-10 10:34:00,
2013-09-10 05:35:00,75.1,65.1,29.76,SW,236,8.0,11.0,71,0.00,,,0.00,Wunderground v.1.15,2013-09-10 10:35:00,
2013-09-10 05:38:00,75.1,64.6,29.76,SW,216,4.0,10.0,70,0.00,,,0.00,Wunderground v.1.15,2013-09-10 10:38:00,
2013-09-10 05:39:00,75.1,64.6,29.76,SW,233,5.0,10.0,70,0.00,,,0.00,Wunderground v.1.15,2013-09-10 10:39:00,
2013-09-10 05:40:00,75.1,64.6,29.76,SW,233,11.0,11.0,70,0.00,,,0.00,Wunderground v.1.15,2013-09-10 10:40:00,
2013-09-10 05:41:00,75.1,64.2,29.76,WSW,245,11.0,11.0,69,0.00,,,0.00,Wunderground v.1.15,2013-09-10 10:41:00,
2013-09-10 05:44:00,75.3,64.4,29.76,WSW,237,10.0,13.0,69,0.00,,,0.00,Wunderground v.1.15,2013-09-10 10:44:00,
2013-09-10 05:45:00,75.3,64.4,29.76,WSW,254,11.0,13.0,69,0.00,,,0.00,Wunderground v.1.15,2013-09-10 10:45:00,
2013-09-10 05:46:00,75.3,64.4,29.76,SW,233,10.0,13.0,69,0.00,,,0.00,Wunderground v.1.15,2013-09-10 10:46:00,
2013-09-10 05:47:00,75.3,64.4,29.76,WSW,241,7.0,13.0,69,0.00,,,0.00,Wunderground v.1.15,2013-09-10 10:47:00,
2013-09-10 05:49:00,75.3,64.4,29.76,SW,229,12.0,12.0,69,0.00,,,0.00,Wunderground v.1.15,2013-09-10 10:49:00,
2013-09-10 05:50:00,75.3,64.4,29.76,SSW,211,6.0,13.0,69,0.00,,,0.00,Wunderground v.1.15,2013-09-10 10:50:00,
2013-09-10 05:53:00,75.4,64.1,29.76,WSW,252,9.0,13.0,68,0.00,,,0.00,Wunderground v.1.15,2013-09-10 10:53:00,
2013-09-10 05:54:00,75.6,63.9,29.76,WSW,252,7.0,13.0,67,0.00,,,0.00,Wunderground v.1.15,2013-09-10 10:54:00,
2013-09-10 05:55:00,75.8,64.1,29.76,SW,226,7.0,13.0,67,0.00,,,0.00,Wunderground v.1.15,2013-09-10 10:55:00,
2013-09-10 05:58:00,75.6,64.3,29.76,WSW,240,8.0,8.0,68,0.00,,,0.00,Wunderground v.1.15,2013-09-10 10:58:00,
2013-09-10 05:59:00,75.6,64.3,29.76,WSW,243,10.0,10.0,68,0.00,,,0.00,Wunderground v.1.15,2013-09-10 10:59:00,
2013-09-10 06:00:00,75.6,64.3,29.76,WSW,240,10.0,14.0,68,0.00,,,0.00,Wunderground v.1.15,2013-09-10 11:00:00,
2013-09-10 06:04:00,75.4,64.1,29.76,WSW,242,10.0,14.0,68,0.00,,,0.00,Wunderground v.1.15,2013-09-10 11:04:00,
2013-09-10 06:05:00,75.3,64.4,29.76,WSW,239,9.0,14.0,69,0.00,,,0.00,Wunderground v.1.15,2013-09-10 11:05:00,
2013-09-10 06:09:00,75.1,64.2,29.76,WSW,249,6.0,8.0,69,0.00,,,0.00,Wunderground v.1.15,2013-09-10 11:09:00,
2013-09-10 06:10:00,75.1,64.2,29.76,WSW,244,7.0,9.0,69,0.00,,,0.00,Wunderground v.1.15,2013-09-10 11:10:00,
2013-09-10 06:11:00,75.1,64.2,29.76,SW,220,10.0,12.0,69,0.00,,,0.00,Wunderground v.1.15,2013-09-10 11:11:00,
2013-09-10 06:13:00,75.1,64.2,29.77,SW,228,10.0,12.0,69,0.00,,,0.00,Wunderground v.1.15,2013-09-10 11:13:00,
2013-09-10 06:14:00,75.1,64.2,29.77,WSW,252,7.0,12.0,69,0.00,,,0.00,Wunderground v.1.15,2013-09-10 11:14:00,
2013-09-10 06:16:00,75.1,63.8,29.77,SW,229,7.0,13.0,68,0.00,,,0.00,Wunderground v.1.15,2013-09-10 11:16:00,
2013-09-10 06:19:00,75.1,63.8,29.77,WSW,250,11.0,11.0,68,0.00,,,0.00,Wunderground v.1.15,2013-09-10 11:19:00,
2013-09-10 06:20:00,75.1,64.2,29.77,WSW,242,6.0,11.0,69,0.00,,,0.00,Wunderground v.1.15,2013-09-10 11:20:00,
2013-09-10 06:21:00,75.1,64.2,29.77,WSW,257,10.0,11.0,69,0.00,,,0.00,Wunderground v.1.15,2013-09-10 11:21:00,
2013-09-10 06:24:00,74.7,63.9,29.77,WSW,237,10.0,13.0,69,0.00,,,0.00,Wunderground v.1.15,2013-09-10 11:24:00,
2013-09-10 06:25:00,74.7,63.9,29.77,SW,220,10.0,13.0,69,0.00,,,0.00,Wunderground v.1.15,2013-09-10 11:25:00,
2013-09-10 06:26:00,74.7,63.9,29.77,WSW,244,6.0,13.0,69,0.00,,,0.00,Wunderground v.1.15,2013-09-10 11:26:00,
2013-09-10 06:30:00,74.9,63.2,29.78,West,276,8.0,9.0,67,0.00,,,0.00,Wunderground v.1.15,2013-09-10 11:30:00,
2013-09-10 06:31:00,75.1,63.4,29.78,WSW,246,10.0,11.0,67,0.00,,,0.00,Wunderground v.1.15,2013-09-10 11:31:00,
2013-09-10 06:35:00,75.1,63.4,29.78,West,267,5.0,11.0,67,0.00,,,0.00,Wunderground v.1.15,2013-09-10 11:35:00,
2013-09-10 06:36:00,75.1,63.4,29.78,WSW,255,8.0,11.0,67,0.00,,,0.00,Wunderground v.1.15,2013-09-10 11:36:00,
2013-09-10 06:39:00,75.1,63.0,29.78,West,272,5.0,7.0,66,0.00,,,0.00,Wunderground v.1.15,2013-09-10 11:39:00,
2013-09-10 06:40:00,75.3,63.2,29.78,West,262,8.0,8.0,66,0.00,,,0.00,Wunderground v.1.15,2013-09-10 11:40:00,
2013-09-10 06:43:00,75.3,63.2,29.79,West,264,6.0,12.0,66,0.00,,,0.00,Wunderground v.1.15,2013-09-10 11:43:00,
2013-09-10 06:44:00,75.3,63.2,29.79,WSW,255,6.0,12.0,66,0.00,,,0.00,Wunderground v.1.15,2013-09-10 11:44:00,
2013-09-10 06:45:00,75.3,63.2,29.79,West,270,4.0,12.0,66,0.00,,,0.00,Wunderground v.1.15,2013-09-10 11:45:00,
2013-09-10 06:46:00,75.3,63.6,29.79,WNW,285,3.0,12.0,67,0.00,,,0.00,Wunderground v.1.15,2013-09-10 11:46:00,
2013-09-10 06:49:00,74.9,63.2,29.79,West,274,4.0,12.0,67,0.00,,,0.00,Wunderground v.1.15,2013-09-10 11:49:00,
2013-09-10 06:50:00,74.9,63.2,29.79,WSW,257,5.0,9.0,67,0.00,,,0.00,Wunderground v.1.15,2013-09-10 11:50:00,
2013-09-10 06:51:00,74.9,63.2,29.79,West,278,8.0,10.0,67,0.00,,,0.00,Wunderground v.1.15,2013-09-10 11:51:00,
2013-09-10 06:53:00,74.9,63.2,29.79,WSW,245,6.0,10.0,67,0.00,,,0.00,Wunderground v.1.15,2013-09-10 11:53:00,
2013-09-10 06:54:00,74.9,63.2,29.79,West,263,9.0,10.0,67,0.00,,,0.00,Wunderground v.1.15,2013-09-10 11:54:00,
2013-09-10 06:55:00,74.9,63.2,29.79,West,262,11.0,11.0,67,0.00,,,0.00,Wunderground v.1.15,2013-09-10 11:55:00,
2013-09-10 06:56:00,74.7,63.0,29.79,West,266,5.0,11.0,67,0.00,,,0.00,Wunderground v.1.15,2013-09-10 11:56:00,
2013-09-10 06:58:00,74.7,63.4,29.80,WNW,289,5.0,7.0,68,0.00,,,0.00,Wunderground v.1.15,2013-09-10 11:58:00,
2013-09-10 06:59:00,74.7,63.4,29.80,West,266,6.0,7.0,68,0.00,,,0.00,Wunderground v.1.15,2013-09-10 11:59:00,
2013-09-10 07:01:00,74.7,63.0,29.80,WSW,243,10.0,11.0,67,0.00,,,0.00,Wunderground v.1.15,2013-09-10 12:01:00,
2013-09-10 07:04:00,74.7,63.0,29.80,West,274,11.0,15.0,67,0.00,,,0.00,Wunderground v.1.15,2013-09-10 12:04:00,
2013-09-10 07:06:00,74.9,62.8,29.80,West,270,7.0,15.0,66,0.00,,,0.00,Wunderground v.1.15,2013-09-10 12:06:00,
2013-09-10 07:09:00,75.1,63.0,29.80,West,263,9.0,10.0,66,0.00,,,0.00,Wunderground v.1.15,2013-09-10 12:09:00,
2013-09-10 07:11:00,75.3,62.7,29.80,West,260,9.0,15.0,65,0.00,,,0.00,Wunderground v.1.15,2013-09-10 12:11:00,
2013-09-10 07:14:00,75.4,62.8,29.80,West,264,8.0,15.0,65,0.00,,,0.00,Wunderground v.1.15,2013-09-10 12:14:00,
2013-09-10 07:16:00,75.6,62.6,29.80,West,271,9.0,15.0,64,0.00,,,0.00,Wunderground v.1.15,2013-09-10 12:16:00,
2013-09-10 07:18:00,75.6,63.0,29.80,SW,224,12.0,12.0,65,0.00,,,0.00,Wunderground v.1.15,2013-09-10 12:18:00,
2013-09-10 07:19:00,75.4,62.8,29.80,West,261,5.0,14.0,65,0.00,,,0.00,Wunderground v.1.15,2013-09-10 12:19:00,
2013-09-10 07:20:00,75.4,62.8,29.80,West,262,5.0,14.0,65,0.00,,,0.00,Wunderground v.1.15,2013-09-10 12:20:00,
2013-09-10 07:21:00,75.4,62.8,29.80,West,267,4.0,14.0,65,0.00,,,0.00,Wunderground v.1.15,2013-09-10 12:21:00,
2013-09-10 07:24:00,75.4,62.8,29.80,WSW,242,13.0,14.0,65,0.00,,,0.00,Wunderground v.1.15,2013-09-10 12:24:00,
2013-09-10 07:25:00,75.4,62.8,29.80,West,273,10.0,16.0,65,0.00,,,0.00,Wunderground v.1.15,2013-09-10 12:25:00,
2013-09-10 07:26:00,75.4,62.8,29.80,West,268,10.0,16.0,65,0.00,,,0.00,Wunderground v.1.15,2013-09-10 12:26:00,
2013-09-10 07:28:00,75.6,63.0,29.80,West,264,6.0,8.0,65,0.00,,,0.00,Wunderground v.1.15,2013-09-10 12:28:00,
2013-09-10 07:29:00,75.6,63.0,29.80,West,281,7.0,8.0,65,0.00,,,0.00,Wunderground v.1.15,2013-09-10 12:29:00,
2013-09-10 07:31:00,75.6,63.0,29.80,WSW,251,12.0,14.0,65,0.00,,,0.00,Wunderground v.1.15,2013-09-10 12:31:00,
2013-09-10 07:34:00,75.6,63.0,29.80,West,266,6.0,14.0,65,0.00,,,0.00,Wunderground v.1.15,2013-09-10 12:34:00,
2013-09-10 07:36:00,75.4,63.2,29.80,WSW,245,8.0,14.0,66,0.00,,,0.00,Wunderground v.1.15,2013-09-10 12:36:00,
2013-09-10 07:39:00,75.4,63.2,29.80,WSW,258,6.0,8.0,66,0.00,,,0.00,Wunderground v.1.15,2013-09-10 12:39:00,
2013-09-10 07:40:00,75.4,63.2,29.80,West,260,6.0,10.0,66,0.00,,,0.00,Wunderground v.1.15,2013-09-10 12:40:00,
2013-09-10 07:41:00,75.4,63.2,29.80,West,266,7.0,10.0,66,0.00,,,0.00,Wunderground v.1.15,2013-09-10 12:41:00,
2013-09-10 07:44:00,75.3,63.6,29.81,WSW,245,6.0,10.0,67,0.00,,,0.00,Wunderground v.1.15,2013-09-10 12:44:00,
2013-09-10 07:48:00,75.3,63.6,29.81,SW,225,10.0,11.0,67,0.00,,,0.00,Wunderground v.1.15,2013-09-10 12:48:00,
2013-09-10 07:49:00,75.3,63.6,29.81,West,266,5.0,11.0,67,0.00,,,0.00,Wunderground v.1.15,2013-09-10 12:49:00,
2013-09-10 07:54:00,75.4,63.2,29.81,WSW,243,7.0,14.0,66,0.00,,,0.00,Wunderground v.1.15,2013-09-10 12:54:00,
2013-09-10 07:59:00,75.8,63.2,29.80,WSW,243,11.0,15.0,65,0.00,,,0.00,Wunderground v.1.15,2013-09-10 12:59:00,
2013-09-10 08:00:00,75.8,63.2,29.80,WSW,257,9.0,15.0,65,0.00,,,0.00,Wunderground v.1.15,2013-09-10 13:00:00,
2013-09-10 08:04:00,76.0,63.8,29.80,SW,226,12.0,15.0,66,0.00,,,0.00,Wunderground v.1.15,2013-09-10 13:04:00,
2013-09-10 08:05:00,76.0,63.8,29.80,West,269,9.0,15.0,66,0.00,,,0.00,Wunderground v.1.15,2013-09-10 13:05:00,
2013-09-10 08:09:00,76.1,63.0,29.80,West,270,11.0,11.0,64,0.00,,,0.00,Wunderground v.1.15,2013-09-10 13:09:00,
2013-09-10 08:10:00,76.3,63.7,29.80,WSW,256,11.0,16.0,65,0.00,,,0.00,Wunderground v.1.15,2013-09-10 13:10:00,
2013-09-10 08:14:00,76.5,63.4,29.80,West,261,7.0,16.0,64,0.00,,,0.00,Wunderground v.1.15,2013-09-10 13:14:00,
2013-09-10 08:15:00,76.5,63.9,29.80,WSW,238,9.0,16.0,65,0.00,,,0.00,Wunderground v.1.15,2013-09-10 13:15:00,
2013-09-10 08:16:00,76.5,63.4,29.80,West,264,9.0,16.0,64,0.00,,,0.00,Wunderground v.1.15,2013-09-10 13:16:00,
2013-09-10 08:20:00,76.7,63.6,29.80,West,260,11.0,16.0,64,0.00,,,0.00,Wunderground v.1.15,2013-09-10 13:20:00,
2013-09-10 08:21:00,76.7,63.6,29.80,West,274,7.0,16.0,64,0.00,,,0.00,Wunderground v.1.15,2013-09-10 13:21:00,
2013-09-10 08:25:00,76.8,64.1,29.80,WNW,285,5.0,16.0,65,0.00,,,0.00,Wunderground v.1.15,2013-09-10 13:25:00,
2013-09-10 08:28:00,77.0,63.9,29.81,WSW,256,8.0,16.0,64,0.00,,,0.00,Wunderground v.1.15,2013-09-10 13:28:00,
2013-09-10 08:29:00,77.0,63.9,29.81,WSW,255,10.0,16.0,64,0.00,,,0.00,Wunderground v.1.15,2013-09-10 13:29:00,
2013-09-10 08:30:00,77.0,64.3,29.81,WSW,257,7.0,10.0,65,0.00,,,0.00,Wunderground v.1.15,2013-09-10 13:30:00,
2013-09-10 08:31:00,77.0,64.3,29.81,WSW,258,14.0,14.0,65,0.00,,,0.00,Wunderground v.1.15,2013-09-10 13:31:00,
2013-09-10 08:34:00,77.0,63.9,29.81,West,259,9.0,16.0,64,0.00,,,0.00,Wunderground v.1.15,2013-09-10 13:34:00,
2013-09-10 08:36:00,77.2,63.6,29.81,West,260,8.0,16.0,63,0.00,,,0.00,Wunderground v.1.15,2013-09-10 13:36:00,
2013-09-10 08:38:00,77.4,64.3,29.81,West,260,13.0,17.0,64,0.00,,,0.00,Wunderground v.1.15,2013-09-10 13:38:00,
2013-09-10 08:39:00,77.4,64.3,29.81,NW,312,14.0,17.0,64,0.00,,,0.00,Wunderground v.1.15,2013-09-10 13:39:00,
2013-09-10 08:40:00,77.4,63.8,29.81,West,269,14.0,15.0,63,0.00,,,0.00,Wunderground v.1.15,2013-09-10 13:40:00,
2013-09-10 08:41:00,77.6,64.0,29.81,SW,224,7.0,15.0,63,0.00,,,0.00,Wunderground v.1.15,2013-09-10 13:41:00,
2013-09-10 08:44:00,77.7,63.6,29.81,West,264,14.0,15.0,62,0.00,,,0.00,Wunderground v.1.15,2013-09-10 13:44:00,
2013-09-10 08:45:00,77.7,63.6,29.81,WSW,251,12.0,15.0,62,0.00,,,0.00,Wunderground v.1.15,2013-09-10 13:45:00,
2013-09-10 08:46:00,77.7,63.6,29.81,WSW,253,5.0,15.0,62,0.00,,,0.00,Wunderground v.1.15,2013-09-10 13:46:00,
2013-09-10 08:49:00,77.9,64.3,29.81,West,269,8.0,15.0,63,0.00,,,0.00,Wunderground v.1.15,2013-09-10 13:49:00,
2013-09-10 08:50:00,77.9,64.3,29.81,West,266,10.0,15.0,63,0.00,,,0.00,Wunderground v.1.15,2013-09-10 13:50:00,
2013-09-10 08:51:00,77.9,64.3,29.81,West,268,7.0,15.0,63,0.00,,,0.00,Wunderground v.1.15,2013-09-10 13:51:00,
2013-09-10 08:54:00,78.1,64.9,29.81,West,273,6.0,15.0,64,0.00,,,0.00,Wunderground v.1.15,2013-09-10 13:54:00,
2013-09-10 08:56:00,78.1,64.9,29.81,WNW,283,5.0,15.0,64,0.00,,,0.00,Wunderground v.1.15,2013-09-10 13:56:00,
2013-09-10 08:58:00,78.3,64.7,29.81,West,276,5.0,8.0,63,0.00,,,0.00,Wunderground v.1.15,2013-09-10 13:58:00,
2013-09-10 08:59:00,78.3,64.7,29.81,WSW,256,7.0,10.0,63,0.00,,,0.00,Wunderground v.1.15,2013-09-10 13:59:00,
2013-09-10 09:03:00,78.6,64.9,29.81,WNW,295,5.0,11.0,63,0.00,,,0.00,Wunderground v.1.15,2013-09-10 14:03:00,
2013-09-10 09:04:00,78.6,64.5,29.81,West,266,6.0,11.0,62,0.00,,,0.00,Wunderground v.1.15,2013-09-10 14:04:00,
2013-09-10 09:05:00,78.6,64.5,29.81,West,278,6.0,11.0,62,0.00,,,0.00,Wunderground v.1.15,2013-09-10 14:05:00,
2013-09-10 09:09:00,79.0,64.9,29.81,WSW,254,7.0,8.0,62,0.00,,,0.00,Wunderground v.1.15,2013-09-10 14:09:00,
2013-09-10 09:10:00,79.0,64.9,29.81,West,278,9.0,10.0,62,0.00,,,0.00,Wunderground v.1.15,2013-09-10 14:10:00,
2013-09-10 09:14:00,79.2,64.1,29.81,West,278,4.0,11.0,60,0.00,,,0.00,Wunderground v.1.15,2013-09-10 14:14:00,
2013-09-10 09:15:00,79.4,63.8,29.81,West,266,7.0,11.0,59,0.00,,,0.00,Wunderground v.1.15,2013-09-10 14:15:00,
2013-09-10 09:16:00,79.6,64.5,29.81,WSW,254,11.0,11.0,60,0.00,,,0.00,Wunderground v.1.15,2013-09-10 14:16:00,
2013-09-10 09:19:00,79.8,64.2,29.81,WNW,283,4.0,11.0,59,0.00,,,0.00,Wunderground v.1.15,2013-09-10 14:19:00,
2013-09-10 09:20:00,79.8,64.2,29.81,WSW,249,6.0,11.0,59,0.00,,,0.00,Wunderground v.1.15,2013-09-10 14:20:00,
2013-09-10 09:21:00,79.8,64.2,29.81,WSW,256,14.0,14.0,59,0.00,,,0.00,Wunderground v.1.15,2013-09-10 14:21:00,
2013-09-10 09:24:00,80.1,64.5,29.81,WNW,284,5.0,16.0,59,0.00,,,0.00,Wunderground v.1.15,2013-09-10 14:24:00,
2013-09-10 09:25:00,80.1,64.5,29.81,WNW,283,6.0,16.0,59,0.00,,,0.00,Wunderground v.1.15,2013-09-10 14:25:00,
2013-09-10 09:26:00,80.1,64.5,29.81,SW,234,9.0,16.0,59,0.00,,,0.00,Wunderground v.1.15,2013-09-10 14:26:00,
2013-09-10 09:28:00,80.3,64.7,29.82,West,262,7.0,8.0,59,0.00,,,0.00,Wunderground v.1.15,2013-09-10 14:28:00,
2013-09-10 09:29:00,80.3,64.7,29.82,WNW,295,7.0,13.0,59,0.00,,,0.00,Wunderground v.1.15,2013-09-10 14:29:00,
2013-09-10 09:30:00,80.3,65.1,29.82,WNW,285,7.0,13.0,60,0.00,,,0.00,Wunderground v.1.15,2013-09-10 14:30:00,
2013-09-10 09:31:00,80.3,65.1,29.82,West,263,10.0,13.0,60,0.00,,,0.00,Wunderground v.1.15,2013-09-10 14:31:00,
2013-09-10 09:34:00,80.5,63.9,29.82,West,269,14.0,16.0,57,0.00,,,0.00,Wunderground v.1.15,2013-09-10 14:34:00,
2013-09-10 09:35:00,80.5,63.9,29.82,West,270,12.0,16.0,57,0.00,,,0.00,Wunderground v.1.15,2013-09-10 14:35:00,
2013-09-10 09:38:00,80.7,64.1,29.82,WNW,285,4.0,17.0,57,0.00,,,0.00,Wunderground v.1.15,2013-09-10 14:38:00,
2013-09-10 09:39:00,80.7,64.5,29.82,WNW,296,9.0,13.0,58,0.00,,,0.00,Wunderground v.1.15,2013-09-10 14:39:00,
2013-09-10 09:40:00,80.7,64.5,29.82,WNW,293,13.0,13.0,58,0.00,,,0.00,Wunderground v.1.15,2013-09-10 14:40:00,
2013-09-10 09:44:00,80.9,64.2,29.82,WNW,285,12.0,15.0,57,0.00,,,0.00,Wunderground v.1.15,2013-09-10 14:44:00,
2013-09-10 09:45:00,80.9,64.2,29.82,West,275,11.0,15.0,57,0.00,,,0.00,Wunderground v.1.15,2013-09-10 14:45:00,
2013-09-10 09:50:00,80.9,64.2,29.82,WSW,256,10.0,15.0,57,0.00,,,0.00,Wunderground v.1.15,2013-09-10 14:50:00,
2013-09-10 09:51:00,81.1,64.9,29.82,WNW,291,14.0,16.0,58,0.00,,,0.00,Wunderground v.1.15,2013-09-10 14:51:00,
2013-09-10 09:55:00,81.1,64.4,29.82,West,269,12.0,17.0,57,0.00,,,0.00,Wunderground v.1.15,2013-09-10 14:55:00,
2013-09-10 09:56:00,81.1,64.4,29.82,WNW,298,10.0,17.0,57,0.00,,,0.00,Wunderground v.1.15,2013-09-10 14:56:00,
2013-09-10 10:01:00,81.1,63.9,29.82,West,274,11.0,16.0,56,0.00,,,0.00,Wunderground v.1.15,2013-09-10 15:01:00,
2013-09-10 10:04:00,81.1,63.9,29.82,West,278,5.0,16.0,56,0.00,,,0.00,Wunderground v.1.15,2013-09-10 15:04:00,
2013-09-10 10:06:00,81.2,64.5,29.82,WNW,301,6.0,16.0,57,0.00,,,0.00,Wunderground v.1.15,2013-09-10 15:06:00,
2013-09-10 10:08:00,81.2,65.0,29.82,West,267,6.0,11.0,58,0.00,,,0.00,Wunderground v.1.15,2013-09-10 15:08:00,
2013-09-10 10:09:00,81.2,65.0,29.82,WSW,247,14.0,14.0,58,0.00,,,0.00,Wunderground v.1.15,2013-09-10 15:09:00,
2013-09-10 10:10:00,81.2,65.0,29.82,WSW,255,13.0,16.0,58,0.00,,,0.00,Wunderground v.1.15,2013-09-10 15:10:00,
2013-09-10 10:14:00,81.4,65.2,29.82,WSW,249,14.0,16.0,58,0.00,,,0.00,Wunderground v.1.15,2013-09-10 15:14:00,
2013-09-10 10:15:00,81.6,65.4,29.82,WSW,243,14.0,17.0,58,0.00,,,0.00,Wunderground v.1.15,2013-09-10 15:15:00,
2013-09-10 10:19:00,81.8,64.6,29.82,West,274,8.0,10.0,56,0.00,,,0.00,Wunderground v.1.15,2013-09-10 15:19:00,
2013-09-10 10:20:00,81.8,65.1,29.82,West,262,6.0,10.0,57,0.00,,,0.00,Wunderground v.1.15,2013-09-10 15:20:00,
2013-09-10 10:24:00,81.8,65.1,29.82,West,276,9.0,14.0,57,0.00,,,0.00,Wunderground v.1.15,2013-09-10 15:24:00,
2013-09-10 10:25:00,81.8,65.1,29.82,West,269,6.0,14.0,57,0.00,,,0.00,Wunderground v.1.15,2013-09-10 15:25:00,
2013-09-10 10:29:00,82.2,64.9,29.82,West,269,7.0,9.0,56,0.00,,,0.00,Wunderground v.1.15,2013-09-10 15:29:00,
2013-09-10 10:30:00,82.2,64.9,29.82,West,265,8.0,12.0,56,0.00,,,0.00,Wunderground v.1.15,2013-09-10 15:30:00,
2013-09-10 10:34:00,82.6,66.3,29.82,West,270,12.0,14.0,58,0.00,,,0.00,Wunderground v.1.15,2013-09-10 15:34:00,
2013-09-10 10:35:00,82.6,66.3,29.82,WSW,255,10.0,14.0,58,0.00,,,0.00,Wunderground v.1.15,2013-09-10 15:35:00,
2013-09-10 10:39:00,82.8,66.0,29.82,West,279,7.0,11.0,57,0.00,,,0.00,Wunderground v.1.15,2013-09-10 15:39:00,
2013-09-10 10:40:00,82.8,65.5,29.82,WSW,247,11.0,13.0,56,0.00,,,0.00,Wunderground v.1.15,2013-09-10 15:40:00,
2013-09-10 10:44:00,83.0,65.2,29.81,West,270,8.0,15.0,55,0.00,,,0.00,Wunderground v.1.15,2013-09-10 15:44:00,
2013-09-10 10:45:00,83.0,65.7,29.81,West,259,12.0,15.0,56,0.00,,,0.00,Wunderground v.1.15,2013-09-10 15:45:00,
2013-09-10 10:46:00,83.2,66.9,29.81,SW,233,6.0,15.0,58,0.00,,,0.00,Wunderground v.1.15,2013-09-10 15:46:00,
2013-09-10 10:49:00,83.4,65.5,29.81,WSW,251,7.0,10.0,55,0.00,,,0.00,Wunderground v.1.15,2013-09-10 15:49:00,
2013-09-10 10:50:00,83.4,65.5,29.81,West,269,6.0,12.0,55,0.00,,,0.00,Wunderground v.1.15,2013-09-10 15:50:00,
2013-09-10 10:53:00,83.6,65.7,29.81,WNW,287,9.0,16.0,55,0.00,,,0.00,Wunderground v.1.15,2013-09-10 15:53:00,
2013-09-10 10:54:00,83.6,65.2,29.81,West,274,7.0,16.0,54,0.00,,,0.00,Wunderground v.1.15,2013-09-10 15:54:00,
2013-09-10 10:55:00,83.6,65.2,29.81,WNW,296,10.0,16.0,54,0.00,,,0.00,Wunderground v.1.15,2013-09-10 15:55:00,
2013-09-10 10:59:00,83.8,65.9,29.81,WSW,238,11.0,14.0,55,0.00,,,0.00,Wunderground v.1.15,2013-09-10 15:59:00,
2013-09-10 11:00:00,84.0,66.1,29.81,WNW,282,6.0,14.0,55,0.00,,,0.00,Wunderground v.1.15,2013-09-10 16:00:00,
2013-09-10 11:01:00,84.0,66.1,29.81,WSW,255,13.0,14.0,55,0.00,,,0.00,Wunderground v.1.15,2013-09-10 16:01:00,
2013-09-10 11:04:00,84.1,66.2,29.81,West,274,11.0,14.0,55,0.00,,,0.00,Wunderground v.1.15,2013-09-10 16:04:00,
2013-09-10 11:05:00,84.1,66.2,29.81,West,259,14.0,14.0,55,0.00,,,0.00,Wunderground v.1.15,2013-09-10 16:05:00,
2013-09-10 11:06:00,84.1,66.2,29.81,West,266,9.0,14.0,55,0.00,,,0.00,Wunderground v.1.15,2013-09-10 16:06:00,
2013-09-10 11:09:00,84.5,66.6,29.81,West,266,11.0,13.0,55,0.00,,,0.00,Wunderground v.1.15,2013-09-10 16:09:00,
2013-09-10 11:10:00,84.5,66.6,29.81,WNW,282,11.0,14.0,55,0.00,,,0.00,Wunderground v.1.15,2013-09-10 16:10:00,
2013-09-10 11:11:00,84.5,64.9,29.81,WSW,252,12.0,14.0,52,0.00,,,0.00,Wunderground v.1.15,2013-09-10 16:11:00,
2013-09-10 11:15:00,84.7,65.1,29.81,West,268,7.0,14.0,52,0.00,,,0.00,Wunderground v.1.15,2013-09-10 16:15:00,
2013-09-10 11:16:00,84.7,65.1,29.81,West,260,12.0,15.0,52,0.00,,,0.00,Wunderground v.1.15,2013-09-10 16:16:00,
2013-09-10 11:17:00,84.7,65.1,29.81,WSW,241,10.0,15.0,52,0.00,,,0.00,Wunderground v.1.15,2013-09-10 16:17:00,
2013-09-10 11:20:00,85.1,64.9,29.81,West,278,16.0,18.0,51,0.00,,,0.00,Wunderground v.1.15,2013-09-10 16:20:00,
2013-09-10 11:21:00,85.1,64.9,29.81,West,277,13.0,18.0,51,0.00,,,0.00,Wunderground v.1.15,2013-09-10 16:21:00,
2013-09-10 11:24:00,85.3,65.7,29.81,West,262,7.0,18.0,52,0.00,,,0.00,Wunderground v.1.15,2013-09-10 16:24:00,
2013-09-10 11:25:00,85.5,65.9,29.81,WSW,238,8.0,18.0,52,0.00,,,0.00,Wunderground v.1.15,2013-09-10 16:25:00,
2013-09-10 11:26:00,85.5,65.9,29.81,WSW,247,11.0,18.0,52,0.00,,,0.00,Wunderground v.1.15,2013-09-10 16:26:00,
2013-09-10 11:29:00,85.7,66.0,29.80,West,269,11.0,14.0,52,0.00,,,0.00,Wunderground v.1.15,2013-09-10 16:29:00,
2013-09-10 11:31:00,85.9,65.1,29.80,SW,236,10.0,18.0,50,0.00,,,0.00,Wunderground v.1.15,2013-09-10 16:31:00,
2013-09-10 11:34:00,86.1,65.3,29.80,West,269,7.0,18.0,50,0.00,,,0.00,Wunderground v.1.15,2013-09-10 16:34:00,
2013-09-10 11:36:00,86.1,64.7,29.80,WSW,250,10.0,18.0,49,0.00,,,0.00,Wunderground v.1.15,2013-09-10 16:36:00,
2013-09-10 11:38:00,86.3,64.3,29.80,WNW,282,7.0,10.0,48,0.00,,,0.00,Wunderground v.1.15,2013-09-10 16:38:00,
2013-09-10 11:39:00,86.3,64.9,29.80,WSW,258,7.0,10.0,49,0.00,,,0.00,Wunderground v.1.15,2013-09-10 16:39:00,
2013-09-10 11:40:00,86.3,65.5,29.80,West,259,9.0,10.0,50,0.00,,,0.00,Wunderground v.1.15,2013-09-10 16:40:00,
2013-09-10 11:41:00,86.3,65.5,29.80,West,264,6.0,14.0,50,0.00,,,0.00,Wunderground v.1.15,2013-09-10 16:41:00,
2013-09-10 11:43:00,86.5,64.5,29.80,West,275,10.0,15.0,48,0.00,,,0.00,Wunderground v.1.15,2013-09-10 16:43:00,
2013-09-10 11:44:00,86.5,64.5,29.80,WSW,248,14.0,15.0,48,0.00,,,0.00,Wunderground v.1.15,2013-09-10 16:44:00,
2013-09-10 11:45:00,86.7,64.7,29.80,West,260,7.0,15.0,48,0.00,,,0.00,Wunderground v.1.15,2013-09-10 16:45:00,
2013-09-10 11:46:00,86.7,64.7,29.80,WNW,290,14.0,16.0,48,0.00,,,0.00,Wunderground v.1.15,2013-09-10 16:46:00,
2013-09-10 11:48:00,86.7,64.7,29.80,WSW,251,14.0,14.0,48,0.00,,,0.00,Wunderground v.1.15,2013-09-10 16:48:00,
2013-09-10 11:50:00,87.0,65.5,29.80,WSW,237,14.0,16.0,49,0.00,,,0.00,Wunderground v.1.15,2013-09-10 16:50:00,
2013-09-10 11:51:00,87.2,66.3,29.80,WSW,247,11.0,16.0,50,0.00,,,0.00,Wunderground v.1.15,2013-09-10 16:51:00,
2013-09-10 11:54:00,87.4,65.3,29.80,WSW,255,11.0,16.0,48,0.00,,,0.00,Wunderground v.1.15,2013-09-10 16:54:00,
2013-09-10 11:55:00,87.4,64.7,29.80,West,270,6.0,16.0,47,0.00,,,0.00,Wunderground v.1.15,2013-09-10 16:55:00,
2013-09-10 11:56:00,87.6,64.9,29.80,WSW,256,10.0,16.0,47,0.00,,,0.00,Wunderground v.1.15,2013-09-10 16:56:00,
2013-09-10 11:57:00,87.6,64.9,29.80,SW,224,8.0,16.0,47,0.00,,,0.00,Wunderground v.1.15,2013-09-10 16:57:00,
2013-09-10 11:59:00,87.6,64.9,29.80,West,273,12.0,13.0,47,0.00,,,0.00,Wunderground v.1.15,2013-09-10 16:59:00,
2013-09-10 12:00:00,87.8,65.1,29.80,West,271,12.0,15.0,47,0.00,,,0.00,Wunderground v.1.15,2013-09-10 17:00:00,
2013-09-10 12:01:00,87.8,65.1,29.80,West,262,12.0,18.0,47,0.00,,,0.00,Wunderground v.1.15,2013-09-10 17:01:00,
2013-09-10 12:04:00,88.0,64.6,29.80,West,266,10.0,18.0,46,0.00,,,0.00,Wunderground v.1.15,2013-09-10 17:04:00,
2013-09-10 12:05:00,88.0,64.0,29.80,West,268,7.0,21.0,45,0.00,,,0.00,Wunderground v.1.15,2013-09-10 17:05:00,
2013-09-10 12:06:00,88.0,64.6,29.80,WNW,291,9.0,21.0,46,0.00,,,0.00,Wunderground v.1.15,2013-09-10 17:06:00,
2013-09-10 12:09:00,88.4,66.2,29.80,West,266,9.0,13.0,48,0.00,,,0.00,Wunderground v.1.15,2013-09-10 17:09:00,
2013-09-10 12:10:00,88.4,66.2,29.80,West,260,7.0,13.0,48,0.00,,,0.00,Wunderground v.1.15,2013-09-10 17:10:00,
2013-09-10 12:11:00,88.4,66.2,29.80,WSW,243,6.0,13.0,48,0.00,,,0.00,Wunderground v.1.15,2013-09-10 17:11:00,
2013-09-10 12:14:00,88.8,66.0,29.80,WSW,238,8.0,13.0,47,0.00,,,0.00,Wunderground v.1.15,2013-09-10 17:14:00,
2013-09-10 12:15:00,88.8,66.0,29.80,SW,232,13.0,13.0,47,0.00,,,0.00,Wunderground v.1.15,2013-09-10 17:15:00,
2013-09-10 12:18:00,89.0,64.9,29.80,WNW,283,18.0,18.0,45,0.00,,,0.00,Wunderground v.1.15,2013-09-10 17:18:00,
2013-09-10 12:20:00,89.0,64.3,29.80,WSW,238,14.0,23.0,44,0.00,,,0.00,Wunderground v.1.15,2013-09-10 17:20:00,
2013-09-10 12:21:00,89.0,64.3,29.80,West,265,15.0,23.0,44,0.00,,,0.00,Wunderground v.1.15,2013-09-10 17:21:00,
2013-09-10 12:24:00,88.8,64.7,29.80,West,264,9.0,23.0,45,0.00,,,0.00,Wunderground v.1.15,2013-09-10 17:24:00,
2013-09-10 12:25:00,88.8,64.7,29.80,WSW,257,10.0,23.0,45,0.00,,,0.00,Wunderground v.1.15,2013-09-10 17:25:00,
2013-09-10 12:26:00,89.0,64.9,29.80,SW,234,10.0,23.0,45,0.00,,,0.00,Wunderground v.1.15,2013-09-10 17:26:00,
2013-09-10 12:29:00,89.3,65.2,29.80,WSW,249,9.0,11.0,45,0.00,,,0.00,Wunderground v.1.15,2013-09-10 17:29:00,
2013-09-10 12:30:00,89.3,64.5,29.80,SW,222,12.0,12.0,44,0.00,,,0.00,Wunderground v.1.15,2013-09-10 17:30:00,
2013-09-10 12:34:00,89.3,65.2,29.80,WSW,255,11.0,17.0,45,0.00,,,0.00,Wunderground v.1.15,2013-09-10 17:34:00,
2013-09-10 12:35:00,89.3,63.9,29.80,WSW,239,8.0,18.0,43,0.00,,,0.00,Wunderground v.1.15,2013-09-10 17:35:00,
2013-09-10 12:36:00,89.3,63.9,29.80,SW,235,17.0,18.0,43,0.00,,,0.00,Wunderground v.1.15,2013-09-10 17:36:00,
2013-09-10 12:39:00,89.5,64.7,29.80,West,265,15.0,15.0,44,0.00,,,0.00,Wunderground v.1.15,2013-09-10 17:39:00,
2013-09-10 12:40:00,89.5,65.4,29.80,SW,217,15.0,17.0,45,0.00,,,0.00,Wunderground v.1.15,2013-09-10 17:40:00,
2013-09-10 12:43:00,89.7,64.2,29.80,WSW,252,17.0,17.0,43,0.00,,,0.00,Wunderground v.1.15,2013-09-10 17:43:00,
2013-09-10 12:44:00,89.7,64.2,29.80,West,268,19.0,21.0,43,0.00,,,0.00,Wunderground v.1.15,2013-09-10 17:44:00,
2013-09-10 12:45:00,89.5,62.7,29.80,WSW,247,20.0,21.0,41,0.00,,,0.00,Wunderground v.1.15,2013-09-10 17:45:00,
2013-09-10 12:46:00,89.5,62.7,29.80,WSW,250,16.0,21.0,41,0.00,,,0.00,Wunderground v.1.15,2013-09-10 17:46:00,
2013-09-10 12:49:00,89.7,64.2,29.80,West,261,12.0,13.0,43,0.00,,,0.00,Wunderground v.1.15,2013-09-10 17:49:00,
2013-09-10 12:50:00,89.7,64.9,29.80,WSW,255,12.0,14.0,44,0.00,,,0.00,Wunderground v.1.15,2013-09-10 17:50:00,
2013-09-10 12:51:00,89.7,64.9,29.80,West,262,18.0,18.0,44,0.00,,,0.00,Wunderground v.1.15,2013-09-10 17:51:00,
2013-09-10 12:54:00,89.9,63.0,29.80,WSW,248,9.0,18.0,41,0.00,,,0.00,Wunderground v.1.15,2013-09-10 17:54:00,
2013-09-10 12:55:00,89.9,63.0,29.80,West,264,15.0,18.0,41,0.00,,,0.00,Wunderground v.1.15,2013-09-10 17:55:00,
2013-09-10 12:56:00,89.9,63.7,29.80,West,273,14.0,18.0,42,0.00,,,0.00,Wunderground v.1.15,2013-09-10 17:56:00,
2013-09-10 12:59:00,89.9,63.7,29.80,West,269,13.0,17.0,42,0.00,,,0.00,Wunderground v.1.15,2013-09-10 17:59:00,
2013-09-10 13:00:00,89.9,63.7,29.80,West,266,10.0,17.0,42,0.00,,,0.00,Wunderground v.1.15,2013-09-10 18:00:00,
2013-09-10 13:01:00,89.9,64.4,29.80,WSW,254,16.0,17.0,43,0.00,,,0.00,Wunderground v.1.15,2013-09-10 18:01:00,
2013-09-10 13:05:00,90.1,62.5,29.80,West,278,11.0,17.0,40,0.00,,,0.00,Wunderground v.1.15,2013-09-10 18:05:00,
2013-09-10 13:08:00,90.1,63.2,29.80,West,262,8.0,12.0,41,0.00,,,0.00,Wunderground v.1.15,2013-09-10 18:08:00,
2013-09-10 13:09:00,90.3,64.8,29.80,West,272,12.0,18.0,43,0.00,,,0.00,Wunderground v.1.15,2013-09-10 18:09:00,
2013-09-10 13:10:00,90.3,63.4,29.80,WSW,251,15.0,18.0,41,0.00,,,0.00,Wunderground v.1.15,2013-09-10 18:10:00,
2013-09-10 13:11:00,90.3,63.4,29.80,WSW,257,11.0,20.0,41,0.00,,,0.00,Wunderground v.1.15,2013-09-10 18:11:00,
2013-09-10 13:13:00,90.3,65.4,29.80,West,271,7.0,20.0,44,0.00,,,0.00,Wunderground v.1.15,2013-09-10 18:13:00,
2013-09-10 13:15:00,90.3,65.4,29.80,West,271,9.0,20.0,44,0.00,,,0.00,Wunderground v.1.15,2013-09-10 18:15:00,
2013-09-10 13:16:00,90.5,63.6,29.80,West,268,7.0,20.0,41,0.00,,,0.00,Wunderground v.1.15,2013-09-10 18:16:00,
2013-09-10 13:17:00,90.5,64.3,29.80,WSW,244,16.0,20.0,42,0.00,,,0.00,Wunderground v.1.15,2013-09-10 18:17:00,
2013-09-10 13:18:00,90.5,62.9,29.80,West,268,10.0,12.0,40,0.00,,,0.00,Wunderground v.1.15,2013-09-10 18:18:00,
2013-09-10 13:20:00,90.5,63.6,29.80,West,273,9.0,15.0,41,0.00,,,0.00,Wunderground v.1.15,2013-09-10 18:20:00,
2013-09-10 13:22:00,90.5,63.6,29.80,West,262,7.0,15.0,41,0.00,,,0.00,Wunderground v.1.15,2013-09-10 18:22:00,
2013-09-10 13:24:00,90.5,62.2,29.80,West,278,10.0,15.0,39,0.00,,,0.00,Wunderground v.1.15,2013-09-10 18:24:00,
2013-09-10 13:25:00,90.5,63.6,29.80,West,261,5.0,15.0,41,0.00,,,0.00,Wunderground v.1.15,2013-09-10 18:25:00,
2013-09-10 13:26:00,90.5,63.6,29.80,WSW,255,9.0,15.0,41,0.00,,,0.00,Wunderground v.1.15,2013-09-10 18:26:00,
2013-09-10 13:27:00,90.5,63.6,29.80,West,274,6.0,15.0,41,0.00,,,0.00,Wunderground v.1.15,2013-09-10 18:27:00,
2013-09-10 13:29:00,90.7,64.5,29.79,WSW,246,17.0,21.0,42,0.00,,,0.00,Wunderground v.1.15,2013-09-10 18:29:00,
2013-09-10 13:30:00,90.7,63.8,29.79,West,259,12.0,21.0,41,0.00,,,0.00,Wunderground v.1.15,2013-09-10 18:30:00,
2013-09-10 13:31:00,90.5,62.2,29.79,SW,215,11.0,21.0,39,0.00,,,0.00,Wunderground v.1.15,2013-09-10 18:31:00,
2013-09-10 13:34:00,90.7,63.8,29.79,WSW,238,10.0,21.0,41,0.00,,,0.00,Wunderground v.1.15,2013-09-10 18:34:00,
2013-09-10 13:35:00,90.7,62.3,29.79,WSW,241,13.0,21.0,39,0.00,,,0.00,Wunderground v.1.15,2013-09-10 18:35:00,
2013-09-10 13:36:00,90.7,63.8,29.79,SW,234,10.0,21.0,41,0.00,,,0.00,Wunderground v.1.15,2013-09-10 18:36:00,
2013-09-10 13:39:00,90.5,62.2,29.79,West,259,14.0,16.0,39,0.00,,,0.00,Wunderground v.1.15,2013-09-10 18:39:00,
2013-09-10 13:41:00,90.5,62.2,29.79,West,269,18.0,18.0,39,0.00,,,0.00,Wunderground v.1.15,2013-09-10 18:41:00,
2013-09-10 13:42:00,90.5,62.2,29.79,WNW,290,14.0,18.0,39,0.00,,,0.00,Wunderground v.1.15,2013-09-10 18:42:00,
2013-09-10 13:44:00,90.5,62.9,29.79,WSW,254,13.0,18.0,40,0.00,,,0.00,Wunderground v.1.15,2013-09-10 18:44:00,
2013-09-10 13:46:00,90.7,63.8,29.79,SW,215,9.0,18.0,41,0.00,,,0.00,Wunderground v.1.15,2013-09-10 18:46:00,
2013-09-10 13:49:00,91.0,65.4,29.79,SW,236,7.0,10.0,43,0.00,,,0.00,Wunderground v.1.15,2013-09-10 18:49:00,
2013-09-10 13:50:00,91.2,65.6,29.79,West,270,15.0,15.0,43,0.00,,,0.00,Wunderground v.1.15,2013-09-10 18:50:00,
2013-09-10 13:51:00,91.0,63.3,29.79,WNW,293,17.0,22.0,40,0.00,,,0.00,Wunderground v.1.15,2013-09-10 18:51:00,
2013-09-10 13:54:00,91.0,62.6,29.79,WNW,282,12.0,22.0,39,0.00,,,0.00,Wunderground v.1.15,2013-09-10 18:54:00,
2013-09-10 13:55:00,91.0,62.6,29.79,West,273,15.0,22.0,39,0.00,,,0.00,Wunderground v.1.15,2013-09-10 18:55:00,
2013-09-10 13:56:00,91.0,64.0,29.79,West,264,13.0,22.0,41,0.00,,,0.00,Wunderground v.1.15,2013-09-10 18:56:00,
2013-09-10 14:00:00,91.0,63.3,29.79,WNW,302,17.0,22.0,40,0.00,,,0.00,Wunderground v.1.15,2013-09-10 19:00:00,
2013-09-10 14:01:00,90.7,63.1,29.79,WSW,254,15.0,22.0,40,0.00,,,0.00,Wunderground v.1.15,2013-09-10 19:01:00,
2013-09-10 14:03:00,91.0,62.6,29.79,West,280,11.0,22.0,39,0.00,,,0.00,Wunderground v.1.15,2013-09-10 19:03:00,
2013-09-10 14:05:00,91.0,63.3,29.79,West,265,7.0,22.0,40,0.00,,,0.00,Wunderground v.1.15,2013-09-10 19:05:00,
2013-09-10 14:06:00,91.0,64.0,29.79,WNW,284,14.0,22.0,41,0.00,,,0.00,Wunderground v.1.15,2013-09-10 19:06:00,
2013-09-10 14:09:00,91.2,63.5,29.79,West,264,15.0,15.0,40,0.00,,,0.00,Wunderground v.1.15,2013-09-10 19:09:00,
2013-09-10 14:10:00,91.2,63.5,29.79,West,262,12.0,19.0,40,0.00,,,0.00,Wunderground v.1.15,2013-09-10 19:10:00,
2013-09-10 14:11:00,91.0,63.3,29.79,SW,232,9.0,19.0,40,0.00,,,0.00,Wunderground v.1.15,2013-09-10 19:11:00,
2013-09-10 14:14:00,91.2,65.6,29.79,WSW,243,5.0,19.0,43,0.00,,,0.00,Wunderground v.1.15,2013-09-10 19:14:00,
2013-09-10 14:15:00,91.2,65.6,29.79,West,262,10.0,19.0,43,0.00,,,0.00,Wunderground v.1.15,2013-09-10 19:15:00,
2013-09-10 14:16:00,91.2,65.6,29.79,West,264,10.0,19.0,43,0.00,,,0.00,Wunderground v.1.15,2013-09-10 19:16:00,
2013-09-10 14:18:00,91.4,65.8,29.79,SW,231,16.0,19.0,43,0.00,,,0.00,Wunderground v.1.15,2013-09-10 19:18:00,
2013-09-10 14:19:00,91.4,64.4,29.79,West,263,12.0,16.0,41,0.00,,,0.00,Wunderground v.1.15,2013-09-10 19:19:00,
2013-09-10 14:20:00,91.2,62.0,29.79,WSW,257,20.0,24.0,38,0.00,,,0.00,Wunderground v.1.15,2013-09-10 19:20:00,
2013-09-10 14:21:00,91.2,61.3,29.79,West,261,17.0,26.0,37,0.00,,,0.00,Wunderground v.1.15,2013-09-10 19:21:00,
2013-09-10 14:24:00,91.0,61.9,29.79,West,281,10.0,26.0,38,0.00,,,0.00,Wunderground v.1.15,2013-09-10 19:24:00,
2013-09-10 14:25:00,91.0,61.9,29.79,West,264,14.0,26.0,38,0.00,,,0.00,Wunderground v.1.15,2013-09-10 19:25:00,
2013-09-10 14:26:00,91.0,61.9,29.79,West,269,18.0,26.0,38,0.00,,,0.00,Wunderground v.1.15,2013-09-10 19:26:00,
2013-09-10 14:29:00,91.0,63.3,29.79,West,272,13.0,21.0,40,0.00,,,0.00,Wunderground v.1.15,2013-09-10 19:29:00,
2013-09-10 14:30:00,91.0,61.1,29.79,WSW,252,14.0,21.0,37,0.00,,,0.00,Wunderground v.1.15,2013-09-10 19:30:00,
2013-09-10 14:33:00,91.2,62.8,29.79,WNW,290,9.0,21.0,39,0.00,,,0.00,Wunderground v.1.15,2013-09-10 19:33:00,
2013-09-10 14:35:00,91.2,63.5,29.79,WSW,250,12.0,21.0,40,0.00,,,0.00,Wunderground v.1.15,2013-09-10 19:35:00,
2013-09-10 14:36:00,91.2,62.0,29.79,West,265,11.0,21.0,38,0.00,,,0.00,Wunderground v.1.15,2013-09-10 19:36:00,
2013-09-10 14:39:00,91.2,62.8,29.79,West,270,11.0,21.0,39,0.00,,,0.00,Wunderground v.1.15,2013-09-10 19:39:00,
2013-09-10 14:40:00,91.2,62.8,29.79,WSW,240,9.0,14.0,39,0.00,,,0.00,Wunderground v.1.15,2013-09-10 19:40:00,
2013-09-10 14:43:00,91.2,63.5,29.79,West,276,14.0,16.0,40,0.00,,,0.00,Wunderground v.1.15,2013-09-10 19:43:00,
2013-09-10 14:44:00,91.2,63.5,29.79,WSW,252,16.0,23.0,40,0.00,,,0.00,Wunderground v.1.15,2013-09-10 19:44:00,
2013-09-10 14:45:00,91.2,63.5,29.79,WSW,241,16.0,23.0,40,0.00,,,0.00,Wunderground v.1.15,2013-09-10 19:45:00,
2013-09-10 14:46:00,91.0,61.9,29.79,WSW,257,19.0,23.0,38,0.00,,,0.00,Wunderground v.1.15,2013-09-10 19:46:00,
2013-09-10 14:48:00,91.0,61.9,29.79,WSW,252,13.0,23.0,38,0.00,,,0.00,Wunderground v.1.15,2013-09-10 19:48:00,
2013-09-10 14:49:00,91.0,61.9,29.79,WSW,247,27.0,27.0,38,0.00,,,0.00,Wunderground v.1.15,2013-09-10 19:49:00,
2013-09-10 14:50:00,91.0,61.1,29.79,West,281,16.0,27.0,37,0.00,,,0.00,Wunderground v.1.15,2013-09-10 19:50:00,
2013-09-10 14:51:00,91.0,61.1,29.79,West,262,20.0,27.0,37,0.00,,,0.00,Wunderground v.1.15,2013-09-10 19:51:00,
2013-09-10 14:54:00,91.0,61.9,29.79,West,276,13.0,27.0,38,0.00,,,0.00,Wunderground v.1.15,2013-09-10 19:54:00,
2013-09-10 14:55:00,91.0,62.6,29.79,West,259,12.0,27.0,39,0.00,,,0.00,Wunderground v.1.15,2013-09-10 19:55:00,
2013-09-10 14:58:00,91.0,61.9,29.79,West,266,17.0,17.0,38,0.00,,,0.00,Wunderground v.1.15,2013-09-10 19:58:00,
2013-09-10 14:59:00,91.0,63.3,29.79,WNW,284,16.0,17.0,40,0.00,,,0.00,Wunderground v.1.15,2013-09-10 19:59:00,
2013-09-10 15:00:00,91.0,63.3,29.79,West,276,14.0,18.0,40,0.00,,,0.00,Wunderground v.1.15,2013-09-10 20:00:00,
2013-09-10 15:01:00,91.0,61.9,29.79,West,265,16.0,18.0,38,0.00,,,0.00,Wunderground v.1.15,2013-09-10 20:01:00,
2013-09-10 15:04:00,91.0,63.3,29.79,West,269,14.0,18.0,40,0.00,,,0.00,Wunderground v.1.15,2013-09-10 20:04:00,
2013-09-10 15:05:00,91.0,63.3,29.79,SW,236,19.0,19.0,40,0.00,,,0.00,Wunderground v.1.15,2013-09-10 20:05:00,
2013-09-10 15:08:00,91.0,64.0,29.79,SW,232,16.0,16.0,41,0.00,,,0.00,Wunderground v.1.15,2013-09-10 20:08:00,
2013-09-10 15:09:00,91.0,64.7,29.79,SW,235,18.0,18.0,42,0.00,,,0.00,Wunderground v.1.15,2013-09-10 20:09:00,
2013-09-10 15:10:00,91.0,63.3,29.79,SW,217,16.0,19.0,40,0.00,,,0.00,Wunderground v.1.15,2013-09-10 20:10:00,
2013-09-10 15:14:00,91.0,63.3,29.78,WSW,243,5.0,23.0,40,0.00,,,0.00,Wunderground v.1.15,2013-09-10 20:14:00,
2013-09-10 15:15:00,91.0,64.0,29.78,SW,234,9.0,23.0,41,0.00,,,0.00,Wunderground v.1.15,2013-09-10 20:15:00,
2013-09-10 15:18:00,91.0,62.6,29.78,SW,226,17.0,17.0,39,0.00,,,0.00,Wunderground v.1.15,2013-09-10 20:18:00,
2013-09-10 15:19:00,91.0,64.0,29.78,WSW,253,18.0,18.0,41,0.00,,,0.00,Wunderground v.1.15,2013-09-10 20:19:00,
2013-09-10 15:20:00,91.0,64.0,29.78,West,267,12.0,20.0,41,0.00,,,0.00,Wunderground v.1.15,2013-09-10 20:20:00,
2013-09-10 15:23:00,90.7,63.8,29.78,SW,236,13.0,21.0,41,0.00,,,0.00,Wunderground v.1.15,2013-09-10 20:23:00,
2013-09-10 15:24:00,90.7,63.8,29.78,WSW,246,13.0,21.0,41,0.00,,,0.00,Wunderground v.1.15,2013-09-10 20:24:00,
2013-09-10 15:25:00,90.7,63.1,29.78,WNW,289,16.0,21.0,40,0.00,,,0.00,Wunderground v.1.15,2013-09-10 20:25:00,
2013-09-10 15:26:00,90.7,63.1,29.78,WSW,240,11.0,21.0,40,0.00,,,0.00,Wunderground v.1.15,2013-09-10 20:26:00,
2013-09-10 15:29:00,90.7,63.8,29.78,West,259,13.0,14.0,41,0.00,,,0.00,Wunderground v.1.15,2013-09-10 20:29:00,
2013-09-10 15:30:00,90.7,62.3,29.78,West,267,19.0,19.0,39,0.00,,,0.00,Wunderground v.1.15,2013-09-10 20:30:00,
2013-09-10 15:34:00,90.7,62.3,29.78,WSW,251,11.0,21.0,39,0.00,,,0.00,Wunderground v.1.15,2013-09-10 20:34:00,
2013-09-10 15:36:00,90.7,63.8,29.78,SW,235,19.0,21.0,41,0.00,,,0.00,Wunderground v.1.15,2013-09-10 20:36:00,
2013-09-10 15:39:00,90.7,62.3,29.78,SW,226,10.0,17.0,39,0.00,,,0.00,Wunderground v.1.15,2013-09-10 20:39:00,
2013-09-10 15:40:00,90.7,62.3,29.78,WSW,257,12.0,17.0,39,0.00,,,0.00,Wunderground v.1.15,2013-09-10 20:40:00,
2013-09-10 15:41:00,90.7,62.3,29.78,WSW,252,11.0,17.0,39,0.00,,,0.00,Wunderground v.1.15,2013-09-10 20:41:00,
2013-09-10 15:44:00,90.7,62.3,29.77,WSW,256,16.0,17.0,39,0.00,,,0.00,Wunderground v.1.15,2013-09-10 20:44:00,
2013-09-10 15:45:00,90.7,63.1,29.77,SW,235,11.0,18.0,40,0.00,,,0.00,Wunderground v.1.15,2013-09-10 20:45:00,
2013-09-10 15:46:00,90.7,63.8,29.77,WSW,240,11.0,20.0,41,0.00,,,0.00,Wunderground v.1.15,2013-09-10 20:46:00,
2013-09-10 15:50:00,90.7,63.1,29.77,SSW,199,8.0,20.0,40,0.00,,,0.00,Wunderground v.1.15,2013-09-10 20:50:00,
2013-09-10 15:51:00,90.7,63.1,29.77,SW,226,12.0,20.0,40,0.00,,,0.00,Wunderground v.1.15,2013-09-10 20:51:00,
2013-09-10 15:55:00,90.7,62.3,29.77,West,271,14.0,21.0,39,0.00,,,0.00,Wunderground v.1.15,2013-09-10 20:55:00,
2013-09-10 15:58:00,90.7,63.1,29.78,SSW,203,13.0,18.0,40,0.00,,,0.00,Wunderground v.1.15,2013-09-10 20:58:00,
2013-09-10 15:59:00,90.7,63.1,29.78,SW,224,21.0,21.0,40,0.00,,,0.00,Wunderground v.1.15,2013-09-10 20:59:00,
2013-09-10 16:00:00,90.7,63.8,29.78,WSW,245,11.0,22.0,41,0.00,,,0.00,Wunderground v.1.15,2013-09-10 21:00:00,
2013-09-10 16:04:00,90.7,63.1,29.78,WNW,290,20.0,22.0,40,0.00,,,0.00,Wunderground v.1.15,2013-09-10 21:04:00,
2013-09-10 16:05:00,90.5,62.9,29.78,WSW,251,12.0,22.0,40,0.00,,,0.00,Wunderground v.1.15,2013-09-10 21:05:00,
2013-09-10 16:06:00,90.7,63.8,29.78,WSW,238,17.0,22.0,41,0.00,,,0.00,Wunderground v.1.15,2013-09-10 21:06:00,
2013-09-10 16:09:00,90.7,64.5,29.78,SW,228,17.0,17.0,42,0.00,,,0.00,Wunderground v.1.15,2013-09-10 21:09:00,
2013-09-10 16:10:00,90.7,63.1,29.78,WSW,242,15.0,18.0,40,0.00,,,0.00,Wunderground v.1.15,2013-09-10 21:10:00,
2013-09-10 16:13:00,90.7,63.8,29.78,West,262,11.0,19.0,41,0.00,,,0.00,Wunderground v.1.15,2013-09-10 21:13:00,
2013-09-10 16:14:00,90.7,63.8,29.78,West,265,13.0,19.0,41,0.00,,,0.00,Wunderground v.1.15,2013-09-10 21:14:00,
2013-09-10 16:15:00,90.7,63.1,29.78,WSW,237,10.0,19.0,40,0.00,,,0.00,Wunderground v.1.15,2013-09-10 21:15:00,
2013-09-10 16:19:00,90.7,63.8,29.78,SW,225,17.0,17.0,41,0.00,,,0.00,Wunderground v.1.15,2013-09-10 21:19:00,
2013-09-10 16:20:00,90.7,64.5,29.78,SW,231,19.0,20.0,42,0.00,,,0.00,Wunderground v.1.15,2013-09-10 21:20:00,
2013-09-10 16:21:00,90.5,62.9,29.78,WSW,252,14.0,20.0,40,0.00,,,0.00,Wunderground v.1.15,2013-09-10 21:21:00,
2013-09-10 16:23:00,90.5,63.6,29.78,WSW,249,9.0,20.0,41,0.00,,,0.00,Wunderground v.1.15,2013-09-10 21:23:00,
2013-09-10 16:24:00,90.5,63.6,29.78,SSW,200,12.0,20.0,41,0.00,,,0.00,Wunderground v.1.15,2013-09-10 21:24:00,
2013-09-10 16:25:00,90.5,63.6,29.78,SW,236,13.0,20.0,41,0.00,,,0.00,Wunderground v.1.15,2013-09-10 21:25:00,
2013-09-10 16:29:00,90.5,63.6,29.78,SW,228,10.0,14.0,41,0.00,,,0.00,Wunderground v.1.15,2013-09-10 21:29:00,
2013-09-10 16:30:00,90.5,63.6,29.78,West,270,10.0,14.0,41,0.00,,,0.00,Wunderground v.1.15,2013-09-10 21:30:00,
2013-09-10 16:34:00,90.5,63.6,29.78,WNW,288,11.0,17.0,41,0.00,,,0.00,Wunderground v.1.15,2013-09-10 21:34:00,
2013-09-10 16:35:00,90.5,63.6,29.78,WSW,243,13.0,17.0,41,0.00,,,0.00,Wunderground v.1.15,2013-09-10 21:35:00,
2013-09-10 16:36:00,90.3,62.7,29.78,SSW,212,7.0,17.0,40,0.00,,,0.00,Wunderground v.1.15,2013-09-10 21:36:00,
2013-09-10 16:39:00,90.3,62.0,29.78,West,275,15.0,20.0,39,0.00,,,0.00,Wunderground v.1.15,2013-09-10 21:39:00,
2013-09-10 16:40:00,90.3,62.0,29.78,West,264,6.0,20.0,39,0.00,,,0.00,Wunderground v.1.15,2013-09-10 21:40:00,
2013-09-10 16:41:00,90.3,62.0,29.78,SW,232,13.0,22.0,39,0.00,,,0.00,Wunderground v.1.15,2013-09-10 21:41:00,
2013-09-10 16:44:00,90.3,62.7,29.77,WSW,239,13.0,22.0,40,0.00,,,0.00,Wunderground v.1.15,2013-09-10 21:44:00,
2013-09-10 16:45:00,90.3,62.7,29.77,WSW,240,18.0,22.0,40,0.00,,,0.00,Wunderground v.1.15,2013-09-10 21:45:00,
2013-09-10 16:48:00,90.3,62.0,29.77,SW,233,11.0,14.0,39,0.00,,,0.00,Wunderground v.1.15,2013-09-10 21:48:00,
2013-09-10 16:49:00,90.3,62.0,29.77,SW,236,14.0,14.0,39,0.00,,,0.00,Wunderground v.1.15,2013-09-10 21:49:00,
2013-09-10 16:50:00,90.3,61.2,29.77,WSW,257,17.0,19.0,38,0.00,,,0.00,Wunderground v.1.15,2013-09-10 21:50:00,
2013-09-10 16:54:00,90.3,60.5,29.77,West,271,11.0,20.0,37,0.00,,,0.00,Wunderground v.1.15,2013-09-10 21:54:00,
2013-09-10 16:55:00,90.3,62.0,29.77,WSW,247,5.0,20.0,39,0.00,,,0.00,Wunderground v.1.15,2013-09-10 21:55:00,
2013-09-10 16:56:00,90.3,62.0,29.77,WSW,248,5.0,20.0,39,0.00,,,0.00,Wunderground v.1.15,2013-09-10 21:56:00,
2013-09-10 16:59:00,90.1,60.3,29.77,West,262,6.0,16.0,37,0.00,,,0.00,Wunderground v.1.15,2013-09-10 21:59:00,
2013-09-10 17:00:00,90.1,61.1,29.77,SW,231,9.0,18.0,38,0.00,,,0.00,Wunderground v.1.15,2013-09-10 22:00:00,
2013-09-10 17:04:00,90.1,61.8,29.77,SSW,204,5.0,18.0,39,0.00,,,0.00,Wunderground v.1.15,2013-09-10 22:04:00,
2013-09-10 17:05:00,90.1,61.1,29.77,WSW,245,15.0,18.0,38,0.00,,,0.00,Wunderground v.1.15,2013-09-10 22:05:00,
2013-09-10 17:06:00,89.9,60.9,29.77,West,264,11.0,18.0,38,0.00,,,0.00,Wunderground v.1.15,2013-09-10 22:06:00,
2013-09-10 17:09:00,89.9,60.9,29.77,WSW,251,11.0,12.0,38,0.00,,,0.00,Wunderground v.1.15,2013-09-10 22:09:00,
2013-09-10 17:10:00,89.9,60.9,29.77,SW,233,9.0,12.0,38,0.00,,,0.00,Wunderground v.1.15,2013-09-10 22:10:00,
2013-09-10 17:11:00,89.9,61.6,29.77,West,262,10.0,12.0,39,0.00,,,0.00,Wunderground v.1.15,2013-09-10 22:11:00,
2013-09-10 17:15:00,89.9,60.9,29.77,WSW,249,17.0,18.0,38,0.00,,,0.00,Wunderground v.1.15,2013-09-10 22:15:00,
2013-09-10 17:16:00,89.9,61.6,29.77,WSW,240,11.0,18.0,39,0.00,,,0.00,Wunderground v.1.15,2013-09-10 22:16:00,
2013-09-10 17:20:00,89.7,60.7,29.77,West,262,15.0,16.0,38,0.00,,,0.00,Wunderground v.1.15,2013-09-10 22:20:00,
2013-09-10 17:21:00,89.7,60.7,29.77,West,278,20.0,20.0,38,0.00,,,0.00,Wunderground v.1.15,2013-09-10 22:21:00,
2013-09-10 17:25:00,89.7,59.2,29.77,West,259,11.0,25.0,36,0.00,,,0.00,Wunderground v.1.15,2013-09-10 22:25:00,
2013-09-10 17:28:00,89.7,60.0,29.78,West,259,13.0,13.0,37,0.00,,,0.00,Wunderground v.1.15,2013-09-10 22:28:00,
2013-09-10 17:30:00,89.7,60.7,29.78,West,262,8.0,13.0,38,0.00,,,0.00,Wunderground v.1.15,2013-09-10 22:30:00,
2013-09-10 17:31:00,89.7,60.7,29.78,WSW,256,13.0,13.0,38,0.00,,,0.00,Wunderground v.1.15,2013-09-10 22:31:00,
2013-09-10 17:34:00,89.5,61.3,29.78,West,267,11.0,13.0,39,0.00,,,0.00,Wunderground v.1.15,2013-09-10 22:34:00,
2013-09-10 17:35:00,89.5,59.0,29.78,WSW,251,11.0,14.0,36,0.00,,,0.00,Wunderground v.1.15,2013-09-10 22:35:00,
2013-09-10 17:36:00,89.5,60.5,29.78,WSW,238,6.0,14.0,38,0.00,,,0.00,Wunderground v.1.15,2013-09-10 22:36:00,
2013-09-10 17:38:00,89.3,60.4,29.78,WSW,238,12.0,14.0,38,0.00,,,0.00,Wunderground v.1.15,2013-09-10 22:38:00,
2013-09-10 17:39:00,89.3,60.4,29.78,WSW,253,9.0,14.0,38,0.00,,,0.00,Wunderground v.1.15,2013-09-10 22:39:00,
2013-09-10 17:40:00,89.3,60.4,29.78,WSW,247,11.0,14.0,38,0.00,,,0.00,Wunderground v.1.15,2013-09-10 22:40:00,
2013-09-10 17:41:00,89.3,60.4,29.78,WSW,243,12.0,15.0,38,0.00,,,0.00,Wunderground v.1.15,2013-09-10 22:41:00,
2013-09-10 17:44:00,89.0,60.1,29.78,SW,236,9.0,16.0,38,0.00,,,0.00,Wunderground v.1.15,2013-09-10 22:44:00,
2013-09-10 17:45:00,89.0,60.1,29.78,WSW,245,12.0,16.0,38,0.00,,,0.00,Wunderground v.1.15,2013-09-10 22:45:00,
2013-09-10 17:46:00,89.0,60.1,29.78,WSW,237,9.0,16.0,38,0.00,,,0.00,Wunderground v.1.15,2013-09-10 22:46:00,
2013-09-10 17:48:00,89.0,60.8,29.78,WSW,246,9.0,12.0,39,0.00,,,0.00,Wunderground v.1.15,2013-09-10 22:48:00,
2013-09-10 17:49:00,89.0,60.8,29.78,WSW,242,5.0,12.0,39,0.00,,,0.00,Wunderground v.1.15,2013-09-10 22:49:00,
2013-09-10 17:50:00,88.8,60.7,29.78,WSW,238,9.0,12.0,39,0.00,,,0.00,Wunderground v.1.15,2013-09-10 22:50:00,
2013-09-10 17:51:00,88.8,60.7,29.78,WSW,239,7.0,12.0,39,0.00,,,0.00,Wunderground v.1.15,2013-09-10 22:51:00,
2013-09-10 17:54:00,88.6,60.5,29.78,WSW,252,11.0,12.0,39,0.00,,,0.00,Wunderground v.1.15,2013-09-10 22:54:00,
2013-09-10 17:55:00,88.6,61.2,29.78,WSW,240,10.0,14.0,40,0.00,,,0.00,Wunderground v.1.15,2013-09-10 22:55:00,
2013-09-10 17:56:00,88.6,60.5,29.78,WSW,253,9.0,14.0,39,0.00,,,0.00,Wunderground v.1.15,2013-09-10 22:56:00,
2013-09-10 17:59:00,88.4,61.7,29.78,SW,235,5.0,13.0,41,0.00,,,0.00,Wunderground v.1.15,2013-09-10 22:59:00,
2013-09-10 18:00:00,88.4,61.7,29.78,SW,231,9.0,13.0,41,0.00,,,0.00,Wunderground v.1.15,2013-09-10 23:00:00,
2013-09-10 18:01:00,88.4,61.7,29.78,WSW,243,6.0,13.0,41,0.00,,,0.00,Wunderground v.1.15,2013-09-10 23:01:00,
2013-09-10 18:04:00,88.2,61.5,29.78,WSW,250,7.0,13.0,41,0.00,,,0.00,Wunderground v.1.15,2013-09-10 23:04:00,
2013-09-10 18:05:00,88.2,62.2,29.78,WSW,241,8.0,13.0,42,0.00,,,0.00,Wunderground v.1.15,2013-09-10 23:05:00,
2013-09-10 18:06:00,88.2,62.2,29.78,WSW,237,9.0,13.0,42,0.00,,,0.00,Wunderground v.1.15,2013-09-10 23:06:00,
2013-09-10 18:09:00,88.0,62.0,29.78,WSW,242,11.0,11.0,42,0.00,,,0.00,Wunderground v.1.15,2013-09-10 23:09:00,
2013-09-10 18:10:00,88.0,62.0,29.78,WSW,254,6.0,11.0,42,0.00,,,0.00,Wunderground v.1.15,2013-09-10 23:10:00,
2013-09-10 18:11:00,87.8,61.9,29.78,WSW,249,6.0,11.0,42,0.00,,,0.00,Wunderground v.1.15,2013-09-10 23:11:00,
2013-09-10 18:14:00,87.8,61.9,29.78,WSW,243,9.0,11.0,42,0.00,,,0.00,Wunderground v.1.15,2013-09-10 23:14:00,
2013-09-10 18:15:00,87.8,61.9,29.78,WSW,242,8.0,11.0,42,0.00,,,0.00,Wunderground v.1.15,2013-09-10 23:15:00,
2013-09-10 18:16:00,87.8,61.9,29.78,SW,223,6.0,12.0,42,0.00,,,0.00,Wunderground v.1.15,2013-09-10 23:16:00,
2013-09-10 18:20:00,87.4,62.2,29.78,SW,224,5.0,10.0,43,0.00,,,0.00,Wunderground v.1.15,2013-09-10 23:20:00,
2013-09-10 18:21:00,87.4,62.2,29.78,SW,219,7.0,10.0,43,0.00,,,0.00,Wunderground v.1.15,2013-09-10 23:21:00,
2013-09-10 18:25:00,87.0,63.1,29.78,SW,236,6.0,11.0,45,0.00,,,0.00,Wunderground v.1.15,2013-09-10 23:25:00,
2013-09-10 18:26:00,87.0,63.1,29.78,SW,232,6.0,11.0,45,0.00,,,0.00,Wunderground v.1.15,2013-09-10 23:26:00,
2013-09-10 18:29:00,86.7,63.4,29.79,WSW,245,6.0,11.0,46,0.00,,,0.00,Wunderground v.1.15,2013-09-10 23:29:00,
2013-09-10 18:30:00,86.5,63.3,29.79,SW,236,5.0,11.0,46,0.00,,,0.00,Wunderground v.1.15,2013-09-10 23:30:00,
2013-09-10 18:32:00,86.5,63.3,29.79,WSW,240,7.0,11.0,46,0.00,,,0.00,Wunderground v.1.15,2013-09-10 23:32:00,
2013-09-10 18:34:00,86.1,62.9,29.79,WSW,238,9.0,11.0,46,0.00,,,0.00,Wunderground v.1.15,2013-09-10 23:34:00,
2013-09-10 18:35:00,86.1,62.9,29.79,WSW,243,4.0,11.0,46,0.00,,,0.00,Wunderground v.1.15,2013-09-10 23:35:00,
2013-09-10 18:36:00,86.1,62.9,29.79,SW,222,10.0,11.0,46,0.00,,,0.00,Wunderground v.1.15,2013-09-10 23:36:00,
2013-09-10 18:39:00,85.9,62.7,29.79,SW,234,10.0,11.0,46,0.00,,,0.00,Wunderground v.1.15,2013-09-10 23:39:00,
2013-09-10 18:40:00,85.7,63.1,29.79,SW,221,4.0,9.0,47,0.00,,,0.00,Wunderground v.1.15,2013-09-10 23:40:00,
2013-09-10 18:41:00,85.7,63.1,29.79,SW,226,6.0,9.0,47,0.00,,,0.00,Wunderground v.1.15,2013-09-10 23:41:00,
2013-09-10 18:43:00,85.5,63.0,29.79,SW,231,5.0,9.0,47,0.00,,,0.00,Wunderground v.1.15,2013-09-10 23:43:00,
2013-09-10 18:44:00,85.5,63.0,29.79,SW,222,6.0,9.0,47,0.00,,,0.00,Wunderground v.1.15,2013-09-10 23:44:00,
2013-09-10 18:46:00,85.3,62.8,29.79,SW,226,5.0,9.0,47,0.00,,,0.00,Wunderground v.1.15,2013-09-10 23:46:00,
2013-09-10 18:49:00,85.1,62.6,29.79,SW,220,6.0,10.0,47,0.00,,,0.00,Wunderground v.1.15,2013-09-10 23:49:00,
2013-09-10 18:53:00,84.9,62.4,29.79,SW,218,4.0,11.0,47,0.00,,,0.00,Wunderground v.1.15,2013-09-10 23:53:00,
2013-09-10 18:54:00,84.7,62.8,29.79,SSW,206,6.0,11.0,48,0.00,,,0.00,Wunderground v.1.15,2013-09-10 23:54:00,
2013-09-10 18:56:00,84.7,62.2,29.79,SW,226,6.0,11.0,47,0.00,,,0.00,Wunderground v.1.15,2013-09-10 23:56:00,
2013-09-10 18:59:00,84.5,62.1,29.80,SW,223,6.0,6.0,47,0.00,,,0.00,Wunderground v.1.15,2013-09-10 23:59:00,
2013-09-10 19:02:00,84.5,62.1,29.80,SW,215,6.0,11.0,47,0.00,,,0.00,Wunderground v.1.15,2013-09-11 00:02:00,
2013-09-10 19:04:00,84.5,62.1,29.80,SW,219,5.0,11.0,47,0.00,,,0.00,Wunderground v.1.15,2013-09-11 00:04:00,
2013-09-10 19:05:00,84.5,62.1,29.80,SW,214,4.0,11.0,47,0.00,,,0.00,Wunderground v.1.15,2013-09-11 00:05:00,
2013-09-10 19:07:00,84.5,62.1,29.80,SSW,206,8.0,11.0,47,0.00,,,0.00,Wunderground v.1.15,2013-09-11 00:07:00,
2013-09-10 19:09:00,84.5,62.1,29.80,SSW,211,5.0,9.0,47,0.00,,,0.00,Wunderground v.1.15,2013-09-11 00:09:00,
2013-09-10 19:10:00,84.5,62.1,29.80,SW,224,7.0,10.0,47,0.00,,,0.00,Wunderground v.1.15,2013-09-11 00:10:00,
2013-09-10 19:11:00,84.3,61.9,29.80,SSW,212,9.0,10.0,47,0.00,,,0.00,Wunderground v.1.15,2013-09-11 00:11:00,
2013-09-10 19:13:00,84.3,61.9,29.80,SSW,209,10.0,10.0,47,0.00,,,0.00,Wunderground v.1.15,2013-09-11 00:13:00,
2013-09-10 19:14:00,84.3,61.9,29.80,SW,217,6.0,10.0,47,0.00,,,0.00,Wunderground v.1.15,2013-09-11 00:14:00,
2013-09-10 19:15:00,84.3,61.9,29.80,SSW,200,8.0,10.0,47,0.00,,,0.00,Wunderground v.1.15,2013-09-11 00:15:00,
2013-09-10 19:19:00,84.3,61.3,29.80,SW,225,7.0,7.0,46,0.00,,,0.00,Wunderground v.1.15,2013-09-11 00:19:00,
2013-09-10 19:20:00,84.3,61.3,29.80,SSW,212,8.0,11.0,46,0.00,,,0.00,Wunderground v.1.15,2013-09-11 00:20:00,
2013-09-10 19:24:00,84.3,61.3,29.80,SSW,212,9.0,12.0,46,0.00,,,0.00,Wunderground v.1.15,2013-09-11 00:24:00,
2013-09-10 19:25:00,84.3,61.3,29.80,SSW,213,5.0,12.0,46,0.00,,,0.00,Wunderground v.1.15,2013-09-11 00:25:00,
2013-09-10 19:30:00,84.1,61.7,29.80,SSW,203,6.0,9.0,47,0.00,,,0.00,Wunderground v.1.15,2013-09-11 00:30:00,
2013-09-10 19:31:00,84.1,61.7,29.80,SSW,203,10.0,10.0,47,0.00,,,0.00,Wunderground v.1.15,2013-09-11 00:31:00,
2013-09-10 19:32:00,84.1,61.7,29.80,SSW,202,5.0,10.0,47,0.00,,,0.00,Wunderground v.1.15,2013-09-11 00:32:00,
2013-09-10 19:35:00,84.0,61.6,29.80,SSW,208,7.0,10.0,47,0.00,,,0.00,Wunderground v.1.15,2013-09-11 00:35:00,
2013-09-10 19:36:00,84.0,61.6,29.80,SSW,213,6.0,10.0,47,0.00,,,0.00,Wunderground v.1.15,2013-09-11 00:36:00,
2013-09-10 19:38:00,84.0,61.6,29.80,SW,225,5.0,7.0,47,0.00,,,0.00,Wunderground v.1.15,2013-09-11 00:38:00,
2013-09-10 19:40:00,83.8,61.4,29.80,SW,219,7.0,12.0,47,0.00,,,0.00,Wunderground v.1.15,2013-09-11 00:40:00,
2013-09-10 19:41:00,83.8,61.4,29.80,SW,214,8.0,12.0,47,0.00,,,0.00,Wunderground v.1.15,2013-09-11 00:41:00,
2013-09-10 19:43:00,83.8,62.0,29.80,SSW,198,7.0,12.0,48,0.00,,,0.00,Wunderground v.1.15,2013-09-11 00:43:00,
2013-09-10 19:44:00,83.8,61.4,29.80,SSW,207,9.0,12.0,47,0.00,,,0.00,Wunderground v.1.15,2013-09-11 00:44:00,
2013-09-10 19:45:00,83.8,61.4,29.80,SSW,196,5.0,12.0,47,0.00,,,0.00,Wunderground v.1.15,2013-09-11 00:45:00,
2013-09-10 19:46:00,83.8,62.0,29.80,SSW,207,5.0,12.0,48,0.00,,,0.00,Wunderground v.1.15,2013-09-11 00:46:00,
2013-09-10 19:49:00,83.8,61.4,29.80,SW,217,11.0,13.0,47,0.00,,,0.00,Wunderground v.1.15,2013-09-11 00:49:00,
2013-09-10 19:50:00,83.8,61.4,29.80,SSW,208,6.0,13.0,47,0.00,,,0.00,Wunderground v.1.15,2013-09-11 00:50:00,
2013-09-10 19:51:00,83.6,61.2,29.80,SW,217,9.0,13.0,47,0.00,,,0.00,Wunderground v.1.15,2013-09-11 00:51:00,
2013-09-10 19:54:00,83.6,61.8,29.80,SSW,212,5.0,13.0,48,0.00,,,0.00,Wunderground v.1.15,2013-09-11 00:54:00,
2013-09-10 19:55:00,83.6,61.8,29.80,South,185,13.0,13.0,48,0.00,,,0.00,Wunderground v.1.15,2013-09-11 00:55:00,
2013-09-10 19:56:00,83.6,61.8,29.80,SSW,203,5.0,13.0,48,0.00,,,0.00,Wunderground v.1.15,2013-09-11 00:56:00,
2013-09-10 20:00:00,83.4,61.7,29.81,SSW,200,10.0,14.0,48,0.00,,,0.00,Wunderground v.1.15,2013-09-11 01:00:00,
2013-09-10 20:01:00,83.4,61.7,29.81,SSW,210,7.0,14.0,48,0.00,,,0.00,Wunderground v.1.15,2013-09-11 01:01:00,
2013-09-10 20:05:00,83.4,61.7,29.81,SW,219,6.0,14.0,48,0.00,,,0.00,Wunderground v.1.15,2013-09-11 01:05:00,
2013-09-10 20:06:00,83.4,61.7,29.81,SSW,206,9.0,14.0,48,0.00,,,0.00,Wunderground v.1.15,2013-09-11 01:06:00,
2013-09-10 20:10:00,83.2,61.5,29.81,SSW,203,6.0,12.0,48,0.00,,,0.00,Wunderground v.1.15,2013-09-11 01:10:00,
2013-09-10 20:11:00,83.2,61.5,29.81,SSW,209,6.0,12.0,48,0.00,,,0.00,Wunderground v.1.15,2013-09-11 01:11:00,
2013-09-10 20:12:00,83.2,61.5,29.81,South,169,5.0,12.0,48,0.00,,,0.00,Wunderground v.1.15,2013-09-11 01:12:00,
2013-09-10 20:15:00,83.0,61.3,29.81,SSW,210,8.0,12.0,48,0.00,,,0.00,Wunderground v.1.15,2013-09-11 01:15:00,
2013-09-10 20:16:00,83.0,61.3,29.81,South,181,7.0,14.0,48,0.00,,,0.00,Wunderground v.1.15,2013-09-11 01:16:00,
2013-09-10 20:19:00,83.0,61.3,29.81,SSW,204,6.0,8.0,48,0.00,,,0.00,Wunderground v.1.15,2013-09-11 01:19:00,
2013-09-10 20:20:00,83.0,61.3,29.81,South,183,10.0,12.0,48,0.00,,,0.00,Wunderground v.1.15,2013-09-11 01:20:00,
2013-09-10 20:21:00,83.0,61.3,29.81,SSW,193,9.0,14.0,48,0.00,,,0.00,Wunderground v.1.15,2013-09-11 01:21:00,
2013-09-10 20:24:00,82.8,61.1,29.81,SSW,211,7.0,14.0,48,0.00,,,0.00,Wunderground v.1.15,2013-09-11 01:24:00,
2013-09-10 20:25:00,82.6,61.5,29.81,SW,214,9.0,14.0,49,0.00,,,0.00,Wunderground v.1.15,2013-09-11 01:25:00,
2013-09-10 20:26:00,82.4,61.3,29.81,SSW,195,11.0,14.0,49,0.00,,,0.00,Wunderground v.1.15,2013-09-11 01:26:00,
2013-09-10 20:29:00,82.0,61.5,29.82,SSW,197,6.0,8.0,50,0.00,,,0.00,Wunderground v.1.15,2013-09-11 01:29:00,
2013-09-10 20:30:00,82.0,61.5,29.82,SSW,213,6.0,12.0,50,0.00,,,0.00,Wunderground v.1.15,2013-09-11 01:30:00,
2013-09-10 20:31:00,81.8,61.3,29.82,SW,219,9.0,12.0,50,0.00,,,0.00,Wunderground v.1.15,2013-09-11 01:31:00,
2013-09-10 20:32:00,81.8,61.3,29.82,SW,214,9.0,13.0,50,0.00,,,0.00,Wunderground v.1.15,2013-09-11 01:32:00,
2013-09-10 20:34:00,81.8,61.3,29.82,SSW,195,7.0,13.0,50,0.00,,,0.00,Wunderground v.1.15,2013-09-11 01:34:00,
2013-09-10 20:35:00,81.8,61.3,29.82,SSW,192,5.0,13.0,50,0.00,,,0.00,Wunderground v.1.15,2013-09-11 01:35:00,
2013-09-10 20:38:00,81.6,61.2,29.82,SSW,201,7.0,8.0,50,0.00,,,0.00,Wunderground v.1.15,2013-09-11 01:38:00,
2013-09-10 20:39:00,81.6,61.2,29.82,SW,223,13.0,13.0,50,0.00,,,0.00,Wunderground v.1.15,2013-09-11 01:39:00,
2013-09-10 20:40:00,81.6,61.2,29.82,SW,216,4.0,13.0,50,0.00,,,0.00,Wunderground v.1.15,2013-09-11 01:40:00,
2013-09-10 20:44:00,81.4,61.5,29.82,SSW,198,5.0,13.0,51,0.00,,,0.00,Wunderground v.1.15,2013-09-11 01:44:00,
2013-09-10 20:45:00,81.4,61.5,29.82,SSW,203,7.0,13.0,51,0.00,,,0.00,Wunderground v.1.15,2013-09-11 01:45:00,
2013-09-10 20:49:00,81.1,61.3,29.82,SSW,206,7.0,11.0,51,0.00,,,0.00,Wunderground v.1.15,2013-09-11 01:49:00,
2013-09-10 20:50:00,81.1,61.8,29.82,SSW,201,4.0,11.0,52,0.00,,,0.00,Wunderground v.1.15,2013-09-11 01:50:00,
2013-09-10 20:51:00,81.1,61.8,29.82,SSW,203,11.0,12.0,52,0.00,,,0.00,Wunderground v.1.15,2013-09-11 01:51:00,
2013-09-10 20:54:00,80.9,61.6,29.82,SW,217,6.0,12.0,52,0.00,,,0.00,Wunderground v.1.15,2013-09-11 01:54:00,
2013-09-10 20:55:00,80.9,61.6,29.82,SSW,208,6.0,12.0,52,0.00,,,0.00,Wunderground v.1.15,2013-09-11 01:55:00,
2013-09-10 20:56:00,80.7,61.4,29.82,SW,227,7.0,13.0,52,0.00,,,0.00,Wunderground v.1.15,2013-09-11 01:56:00,
2013-09-10 20:59:00,80.7,62.0,29.82,SSW,198,11.0,11.0,53,0.00,,,0.00,Wunderground v.1.15,2013-09-11 01:59:00,
2013-09-10 21:00:00,80.7,62.0,29.82,SSW,206,7.0,11.0,53,0.00,,,0.00,Wunderground v.1.15,2013-09-11 02:00:00,
2013-09-10 21:03:00,80.3,61.6,29.82,South,191,12.0,12.0,53,0.00,,,0.00,Wunderground v.1.15,2013-09-11 02:03:00,
2013-09-10 21:04:00,80.3,62.1,29.82,SSW,193,10.0,12.0,54,0.00,,,0.00,Wunderground v.1.15,2013-09-11 02:04:00,
2013-09-10 21:05:00,80.3,62.1,29.82,SSW,194,7.0,12.0,54,0.00,,,0.00,Wunderground v.1.15,2013-09-11 02:05:00,
2013-09-10 21:08:00,80.1,62.0,29.82,SSW,202,8.0,9.0,54,0.00,,,0.00,Wunderground v.1.15,2013-09-11 02:08:00,
2013-09-10 21:09:00,80.1,62.5,29.82,SSW,208,13.0,13.0,55,0.00,,,0.00,Wunderground v.1.15,2013-09-11 02:09:00,
2013-09-10 21:10:00,80.1,62.5,29.82,SSW,197,9.0,13.0,55,0.00,,,0.00,Wunderground v.1.15,2013-09-11 02:10:00,
2013-09-10 21:12:00,79.9,62.3,29.83,SW,214,12.0,13.0,55,0.00,,,0.00,Wunderground v.1.15,2013-09-11 02:12:00,
2013-09-10 21:14:00,79.9,62.8,29.83,SW,217,10.0,13.0,56,0.00,,,0.00,Wunderground v.1.15,2013-09-11 02:14:00,
2013-09-10 21:15:00,79.8,62.7,29.83,SSW,203,12.0,14.0,56,0.00,,,0.00,Wunderground v.1.15,2013-09-11 02:15:00,
2013-09-10 21:19:00,79.8,63.2,29.83,SW,218,8.0,12.0,57,0.00,,,0.00,Wunderground v.1.15,2013-09-11 02:19:00,
2013-09-10 21:20:00,79.8,63.2,29.83,SSW,212,9.0,13.0,57,0.00,,,0.00,Wunderground v.1.15,2013-09-11 02:20:00,
2013-09-10 21:21:00,79.8,63.2,29.83,SSW,207,11.0,14.0,57,0.00,,,0.00,Wunderground v.1.15,2013-09-11 02:21:00,
2013-09-10 21:23:00,79.6,63.0,29.83,SSW,209,9.0,14.0,57,0.00,,,0.00,Wunderground v.1.15,2013-09-11 02:23:00,
2013-09-10 21:24:00,79.6,63.5,29.83,SW,216,14.0,14.0,58,0.00,,,0.00,Wunderground v.1.15,2013-09-11 02:24:00,
2013-09-10 21:25:00,79.6,63.5,29.83,SSW,210,10.0,14.0,58,0.00,,,0.00,Wunderground v.1.15,2013-09-11 02:25:00,
2013-09-10 21:26:00,79.6,63.5,29.83,SW,215,6.0,14.0,58,0.00,,,0.00,Wunderground v.1.15,2013-09-11 02:26:00,
2013-09-10 21:29:00,79.6,63.5,29.82,SSW,201,6.0,9.0,58,0.00,,,0.00,Wunderground v.1.15,2013-09-11 02:29:00,
2013-09-10 21:30:00,79.6,63.5,29.82,SSW,196,5.0,10.0,58,0.00,,,0.00,Wunderground v.1.15,2013-09-11 02:30:00,
2013-09-10 21:34:00,79.6,63.5,29.82,SSW,203,11.0,13.0,58,0.00,,,0.00,Wunderground v.1.15,2013-09-11 02:34:00,
2013-09-10 21:35:00,79.6,63.5,29.82,SSW,208,9.0,14.0,58,0.00,,,0.00,Wunderground v.1.15,2013-09-11 02:35:00,
2013-09-10 21:39:00,79.6,63.5,29.82,SW,229,10.0,11.0,58,0.00,,,0.00,Wunderground v.1.15,2013-09-11 02:39:00,
2013-09-10 21:40:00,79.6,63.5,29.82,SW,214,12.0,15.0,58,0.00,,,0.00,Wunderground v.1.15,2013-09-11 02:40:00,
2013-09-10 21:44:00,79.8,63.7,29.82,SSW,194,4.0,17.0,58,0.00,,,0.00,Wunderground v.1.15,2013-09-11 02:44:00,
2013-09-10 21:45:00,79.8,63.7,29.82,SW,218,6.0,17.0,58,0.00,,,0.00,Wunderground v.1.15,2013-09-11 02:45:00,
2013-09-10 21:46:00,79.8,63.7,29.82,SW,227,10.0,17.0,58,0.00,,,0.00,Wunderground v.1.15,2013-09-11 02:46:00,
2013-09-10 21:49:00,79.8,63.7,29.82,SSW,195,12.0,14.0,58,0.00,,,0.00,Wunderground v.1.15,2013-09-11 02:49:00,
2013-09-10 21:50:00,79.8,63.7,29.82,SSW,200,7.0,14.0,58,0.00,,,0.00,Wunderground v.1.15,2013-09-11 02:50:00,
2013-09-10 21:51:00,79.8,63.7,29.82,SSW,209,9.0,14.0,58,0.00,,,0.00,Wunderground v.1.15,2013-09-11 02:51:00,
2013-09-10 21:54:00,79.8,63.7,29.82,SSW,207,12.0,14.0,58,0.00,,,0.00,Wunderground v.1.15,2013-09-11 02:54:00,
2013-09-10 21:55:00,79.8,63.7,29.82,SW,227,10.0,14.0,58,0.00,,,0.00,Wunderground v.1.15,2013-09-11 02:55:00,
2013-09-10 21:56:00,79.8,63.7,29.82,SSW,195,9.0,14.0,58,0.00,,,0.00,Wunderground v.1.15,2013-09-11 02:56:00,
2013-09-10 21:57:00,79.8,63.7,29.82,SSW,201,5.0,14.0,58,0.00,,,0.00,Wunderground v.1.15,2013-09-11 02:57:00,
2013-09-10 22:00:00,79.8,64.2,29.81,SW,231,8.0,15.0,59,0.00,,,0.00,Wunderground v.1.15,2013-09-11 03:00:00,
2013-09-10 22:01:00,79.8,64.2,29.81,SSW,206,9.0,15.0,59,0.00,,,0.00,Wunderground v.1.15,2013-09-11 03:01:00,
2013-09-10 22:04:00,79.8,64.2,29.81,SW,226,10.0,15.0,59,0.00,,,0.00,Wunderground v.1.15,2013-09-11 03:04:00,
2013-09-10 22:05:00,79.8,64.2,29.81,SW,220,14.0,15.0,59,0.00,,,0.00,Wunderground v.1.15,2013-09-11 03:05:00,
2013-09-10 22:08:00,79.8,64.2,29.81,SSW,200,11.0,11.0,59,0.00,,,0.00,Wunderground v.1.15,2013-09-11 03:08:00,
2013-09-10 22:09:00,79.8,64.2,29.81,SSE,166,14.0,19.0,59,0.00,,,0.00,Wunderground v.1.15,2013-09-11 03:09:00,
2013-09-10 22:10:00,79.8,64.2,29.81,SSW,197,9.0,19.0,59,0.00,,,0.00,Wunderground v.1.15,2013-09-11 03:10:00,
2013-09-10 22:13:00,79.8,64.2,29.81,SW,219,12.0,19.0,59,0.00,,,0.00,Wunderground v.1.15,2013-09-11 03:13:00,
2013-09-10 22:14:00,79.8,64.2,29.81,SSW,209,9.0,19.0,59,0.00,,,0.00,Wunderground v.1.15,2013-09-11 03:14:00,
2013-09-10 22:15:00,79.8,64.2,29.81,SW,214,11.0,19.0,59,0.00,,,0.00,Wunderground v.1.15,2013-09-11 03:15:00,
2013-09-10 22:16:00,79.8,64.2,29.81,SSW,195,11.0,19.0,59,0.00,,,0.00,Wunderground v.1.15,2013-09-11 03:16:00,
2013-09-10 22:19:00,79.8,64.2,29.81,SSW,201,12.0,14.0,59,0.00,,,0.00,Wunderground v.1.15,2013-09-11 03:19:00,
2013-09-10 22:20:00,79.8,64.2,29.81,SSW,203,13.0,14.0,59,0.00,,,0.00,Wunderground v.1.15,2013-09-11 03:20:00,
2013-09-10 22:21:00,79.8,64.2,29.81,South,172,12.0,15.0,59,0.00,,,0.00,Wunderground v.1.15,2013-09-11 03:21:00,
2013-09-10 22:24:00,79.9,64.3,29.81,SSW,197,6.0,15.0,59,0.00,,,0.00,Wunderground v.1.15,2013-09-11 03:24:00,
2013-09-10 22:25:00,79.9,64.3,29.81,SW,224,9.0,16.0,59,0.00,,,0.00,Wunderground v.1.15,2013-09-11 03:25:00,
2013-09-10 22:26:00,79.9,64.3,29.81,SSW,207,9.0,16.0,59,0.00,,,0.00,Wunderground v.1.15,2013-09-11 03:26:00,
2013-09-10 22:29:00,79.8,64.2,29.81,SW,225,13.0,13.0,59,0.00,,,0.00,Wunderground v.1.15,2013-09-11 03:29:00,
2013-09-10 22:30:00,79.8,64.2,29.81,South,176,4.0,14.0,59,0.00,,,0.00,Wunderground v.1.15,2013-09-11 03:30:00,
2013-09-10 22:33:00,79.8,64.7,29.81,SSW,196,6.0,14.0,60,0.00,,,0.00,Wunderground v.1.15,2013-09-11 03:33:00,
2013-09-10 22:35:00,79.8,64.2,29.81,SW,216,9.0,16.0,59,0.00,,,0.00,Wunderground v.1.15,2013-09-11 03:35:00,
2013-09-10 22:36:00,79.8,64.2,29.81,SW,229,12.0,16.0,59,0.00,,,0.00,Wunderground v.1.15,2013-09-11 03:36:00,
2013-09-10 22:40:00,79.9,64.3,29.81,SSW,212,9.0,14.0,59,0.00,,,0.00,Wunderground v.1.15,2013-09-11 03:40:00,
2013-09-10 22:41:00,79.9,64.3,29.81,SW,220,10.0,14.0,59,0.00,,,0.00,Wunderground v.1.15,2013-09-11 03:41:00,
2013-09-10 22:43:00,79.9,64.3,29.81,SW,230,11.0,14.0,59,0.00,,,0.00,Wunderground v.1.15,2013-09-11 03:43:00,
2013-09-10 22:45:00,79.9,64.3,29.81,SSW,208,12.0,15.0,59,0.00,,,0.00,Wunderground v.1.15,2013-09-11 03:45:00,
2013-09-10 22:46:00,79.9,64.8,29.81,SW,231,12.0,15.0,60,0.00,,,0.00,Wunderground v.1.15,2013-09-11 03:46:00,
2013-09-10 22:48:00,79.8,64.7,29.81,SSW,200,9.0,15.0,60,0.00,,,0.00,Wunderground v.1.15,2013-09-11 03:48:00,
2013-09-10 22:50:00,79.8,64.7,29.81,SW,236,16.0,18.0,60,0.00,,,0.00,Wunderground v.1.15,2013-09-11 03:50:00,
2013-09-10 22:51:00,79.8,64.7,29.81,SSW,209,11.0,18.0,60,0.00,,,0.00,Wunderground v.1.15,2013-09-11 03:51:00,
2013-09-10 22:54:00,79.9,64.8,29.81,SW,229,14.0,18.0,60,0.00,,,0.00,Wunderground v.1.15,2013-09-11 03:54:00,
2013-09-10 22:55:00,79.9,64.8,29.81,SW,235,11.0,18.0,60,0.00,,,0.00,Wunderground v.1.15,2013-09-11 03:55:00,
2013-09-10 22:58:00,79.9,64.8,29.81,SW,228,10.0,10.0,60,0.00,,,0.00,Wunderground v.1.15,2013-09-11 03:58:00,
2013-09-10 22:59:00,79.9,64.8,29.81,SSW,195,15.0,15.0,60,0.00,,,0.00,Wunderground v.1.15,2013-09-11 03:59:00,
2013-09-10 23:00:00,79.9,64.8,29.81,SSW,213,14.0,15.0,60,0.00,,,0.00,Wunderground v.1.15,2013-09-11 04:00:00,
2013-09-10 23:01:00,79.9,64.8,29.81,SSW,193,9.0,15.0,60,0.00,,,0.00,Wunderground v.1.15,2013-09-11 04:01:00,
2013-09-10 23:04:00,80.1,65.0,29.81,SSW,198,7.0,16.0,60,0.00,,,0.00,Wunderground v.1.15,2013-09-11 04:04:00,
2013-09-10 23:05:00,80.1,65.0,29.81,WSW,246,13.0,18.0,60,0.00,,,0.00,Wunderground v.1.15,2013-09-11 04:05:00,
2013-09-10 23:06:00,79.9,64.8,29.81,SW,221,10.0,18.0,60,0.00,,,0.00,Wunderground v.1.15,2013-09-11 04:06:00,
2013-09-10 23:07:00,80.1,65.0,29.81,SW,219,11.0,18.0,60,0.00,,,0.00,Wunderground v.1.15,2013-09-11 04:07:00,
2013-09-10 23:09:00,80.1,65.0,29.81,SSW,200,9.0,15.0,60,0.00,,,0.00,Wunderground v.1.15,2013-09-11 04:09:00,
2013-09-10 23:10:00,80.1,65.0,29.81,SSW,205,15.0,15.0,60,0.00,,,0.00,Wunderground v.1.15,2013-09-11 04:10:00,
2013-09-10 23:11:00,80.1,65.0,29.81,South,188,6.0,16.0,60,0.00,,,0.00,Wunderground v.1.15,2013-09-11 04:11:00,
2013-09-10 23:14:00,80.1,65.0,29.80,SSW,200,10.0,16.0,60,0.00,,,0.00,Wunderground v.1.15,2013-09-11 04:14:00,
2013-09-10 23:15:00,80.3,65.1,29.80,SW,230,11.0,16.0,60,0.00,,,0.00,Wunderground v.1.15,2013-09-11 04:15:00,
2013-09-10 23:16:00,80.3,65.1,29.80,WSW,242,12.0,16.0,60,0.00,,,0.00,Wunderground v.1.15,2013-09-11 04:16:00,
2013-09-10 23:18:00,80.3,65.1,29.80,SW,230,12.0,12.0,60,0.00,,,0.00,Wunderground v.1.15,2013-09-11 04:18:00,
2013-09-10 23:19:00,80.3,65.1,29.80,SSW,210,9.0,20.0,60,0.00,,,0.00,Wunderground v.1.15,2013-09-11 04:19:00,
2013-09-10 23:21:00,80.3,65.1,29.80,SW,224,10.0,20.0,60,0.00,,,0.00,Wunderground v.1.15,2013-09-11 04:21:00,
2013-09-10 23:24:00,80.3,65.1,29.80,SSW,213,12.0,20.0,60,0.00,,,0.00,Wunderground v.1.15,2013-09-11 04:24:00,
2013-09-10 23:25:00,80.3,65.1,29.80,SSW,200,7.0,20.0,60,0.00,,,0.00,Wunderground v.1.15,2013-09-11 04:25:00,
2013-09-10 23:26:00,80.3,65.1,29.80,SW,220,9.0,20.0,60,0.00,,,0.00,Wunderground v.1.15,2013-09-11 04:26:00,
2013-09-10 23:29:00,80.3,65.1,29.80,SSW,202,11.0,13.0,60,0.00,,,0.00,Wunderground v.1.15,2013-09-11 04:29:00,
2013-09-10 23:30:00,80.3,65.1,29.80,SSW,198,12.0,15.0,60,0.00,,,0.00,Wunderground v.1.15,2013-09-11 04:30:00,
2013-09-10 23:31:00,80.1,65.0,29.80,SW,229,7.0,15.0,60,0.00,,,0.00,Wunderground v.1.15,2013-09-11 04:31:00,
2013-09-10 23:34:00,80.1,65.4,29.80,SSW,211,6.0,15.0,61,0.00,,,0.00,Wunderground v.1.15,2013-09-11 04:34:00,
2013-09-10 23:35:00,80.1,65.4,29.80,SW,224,14.0,15.0,61,0.00,,,0.00,Wunderground v.1.15,2013-09-11 04:35:00,
2013-09-10 23:36:00,79.9,65.2,29.80,SW,231,6.0,15.0,61,0.00,,,0.00,Wunderground v.1.15,2013-09-11 04:36:00,
2013-09-10 23:39:00,79.9,65.2,29.80,SW,224,11.0,11.0,61,0.00,,,0.00,Wunderground v.1.15,2013-09-11 04:39:00,
2013-09-10 23:40:00,79.9,65.2,29.80,SW,222,9.0,12.0,61,0.00,,,0.00,Wunderground v.1.15,2013-09-11 04:40:00,
2013-09-10 23:43:00,79.8,65.2,29.80,SW,229,10.0,12.0,61,0.00,,,0.00,Wunderground v.1.15,2013-09-11 04:43:00,
2013-09-10 23:45:00,79.8,65.2,29.80,SW,216,7.0,14.0,61,0.00,,,0.00,Wunderground v.1.15,2013-09-11 04:45:00,
2013-09-10 23:46:00,79.8,65.2,29.80,SW,223,5.0,14.0,61,0.00,,,0.00,Wunderground v.1.15,2013-09-11 04:46:00,
2013-09-10 23:48:00,79.8,65.2,29.80,WSW,243,9.0,9.0,61,0.00,,,0.00,Wunderground v.1.15,2013-09-11 04:48:00,
2013-09-10 23:50:00,79.8,65.2,29.80,WSW,257,10.0,12.0,61,0.00,,,0.00,Wunderground v.1.15,2013-09-11 04:50:00,
2013-09-10 23:51:00,79.8,65.2,29.80,WSW,238,11.0,12.0,61,0.00,,,0.00,Wunderground v.1.15,2013-09-11 04:51:00,
2013-09-10 23:54:00,79.6,65.0,29.80,SW,234,11.0,12.0,61,0.00,,,0.00,Wunderground v.1.15,2013-09-11 04:54:00,
2013-09-10 23:55:00,79.6,65.0,29.80,WSW,245,6.0,12.0,61,0.00,,,0.00,Wunderground v.1.15,2013-09-11 04:55:00,
2013-09-10 23:58:00,79.6,65.0,29.80,SW,233,10.0,10.0,61,0.00,,,0.00,Wunderground v.1.15,2013-09-11 04:58:00,
2013-09-10 23:59:00,79.6,65.0,29.80,SW,219,11.0,11.0,61,0.00,,,0.00,Wunderground v.1.15,2013-09-11 04:59:00,